GEFSGL_500_meanwind_132.txt.gz
Wind_Speed
25 26 26 27 26 26 26 27 26 27 26 25 25 25 26 25 25 26 26 26 26 25 25 24 24 24 24 24 24 24 24 24 24 25 25 25 25 26 27 27 28 28 29
24 25 25 26 26 26 25 25 26 26 25 24 24 24 24 24 23 23 23 23 24 24 24 25 24 24 24 23 23 23 23 23 24 24 24 24 24 25 25 26 27 27 28
24 24 25 25 25 25 24 24 23 23 23 23 22 22 22 22 22 22 22 22 22 22 22 24 24 24 24 23 23 22 23 23 23 23 23 24 24 24 25 26 26 26 27
23 23 23 23 22 22 22 21 21 21 21 20 19 19 20 20 20 20 20 21 21 20 20 21 21 22 22 21 21 22 21 21 21 22 22 22 23 23 23 24 24 24 25
21 21 21 20 19 18 18 17 17 17 16 16 16 16 17 17 17 17 17 17 18 18 18 18 18 19 21 20 19 19 20 20 20 21 21 21 21 21 21 21 21 22 22
19 19 18 17 16 15 15 14 13 13 13 13 13 13 13 13 13 13 13 14 15 15 15 15 16 17 17 17 17 18 18 18 18 18 17 18 18 18 18 18 18 18 18
17 16 15 14 13 12 12 11 10 10 10 10 9 10 10 10 10 10 10 10 11 11 11 11 12 13 14 14 14 13 13 14 14 14 14 15 15 15 15 15 15 15 15
13 13 12 11 10 10 9 8 7 7 7 7 7 6 6 6 6 6 6 6 5 5 6 6 7 8 9 9 10 10 9 10 11 12 12 13 13 13 12 12 12 13 13
11 10 9 9 8 7 6 5 5 5 5 4 4 4 3 3 3 2 2 2 2 2 2 3 3 3 4 4 5 5 6 7 8 8 9 9 9 9 9 9 10 10 10
8 7 7 7 6 6 5 4 3 3 2 2 2 1 1 2 2 2 0 0 1 2 2 2 2 2 2 2 2 3 4 5 5 5 5 6 6 6 6 7 8 8 9
6 5 5 4 4 4 3 3 2 2 1 1 2 2 2 1 1 2 3 2 2 3 3 3 3 2 2 2 1 1 2 3 3 3 3 3 4 4 4 5 6 7 8
4 4 4 3 4 4 3 3 3 3 3 3 3 3 3 3 3 3 3 3 4 4 4 4 4 4 4 4 3 2 2 1 0 1 1 2 2 3 3 4 5 6 7
3 3 3 4 4 4 4 4 4 4 4 4 5 5 5 5 5 5 5 5 5 5 6 6 6 6 6 5 5 4 4 3 3 2 2 2 2 3 4 5 6 7 7
4 4 4 5 6 6 6 6 7 7 7 7 7 8 8 8 8 8 8 9 9 9 8 7 7 7 6 6 6 6 6 5 5 5 5 4 4 4 5 5 6 7 8
5 5 5 6 7 7 8 8 9 9 9 9 9 9 10 11 11 11 11 10 10 9 9 8 8 8 7 7 7 7 7 8 8 7 7 7 7 6 6 7 7 8 9
6 7 7 7 7 7 8 9 9 9 10 10 10 11 11 11 11 11 11 11 11 10 10 10 10 10 10 10 10 10 10 10 9 9 9 9 8 8 8 8 9 10 11
8 8 8 8 8 8 9 9 10 10 11 11 12 12 12 12 12 11 11 11 11 12 11 11 11 11 11 11 11 11 11 11 10 10 10 10 10 10 10 10 10 11 12
9 9 10 10 10 10 10 10 11 11 12 12 12 12 12 12 12 12 12 12 12 12 12 12 12 12 12 12 12 12 12 12 11 11 11 11 11 11 11 11 12 12 13
11 11 11 11 12 12 12 12 12 12 12 12 12 12 12 12 12 12 11 12 12 12 12 12 12 12 12 12 12 12 11 11 11 11 11 11 11 11 12 12 13 14 14
12 12 12 12 12 13 13 13 13 13 13 13 12 12 11 11 11 11 11 11 11 11 11 11 11 11 11 11 11 10 10 10 10 10 10 10 11 12 12 13 14 15 16
12 12 12 12 12 12 12 12 12 12 12 11 11 11 11 10 10 10 10 10 10 10 10 10 10 9 9 9 9 9 9 9 9 9 10 11 11 12 13 14 15 16 17
11 11 11 11 11 10 10 10 10 10 10 10 10 9 9 9 9 9 9 8 8 9 9 8 8 8 8 8 8 8 8 8 9 9 10 11 12 13 14 15 16 18 19
9 9 9 9 9 9 8 8 8 8 8 8 8 8 8 8 7 7 7 7 7 7 7 7 6 6 6 6 7 7 8 8 9 10 10 12 13 14 15 17 18 20 21
6 6 7 7 7 7 7 7 6 6 6 6 6 6 6 5 5 5 5 5 5 5 5 5 5 5 6 6 7 7 8 9 9 11 12 13 14 16 17 19 20 22 23
4 4 4 5 5 5 5 4 4 4 4 4 4 3 3 3 3 2 2 2 2 2 3 4 4 5 6 6 7 8 9 10 11 12 13 15 16 17 19 20 22 24 26
1 1 2 2 2 2 2 2 2 2 1 1 1 1 1 1 0 1 2 2 3 4 4 5 6 6 7 8 9 10 10 12 13 14 16 17 18 19 21 22 24 26 27

GEFSGL_500_meanwind_138.txt.gz
Wind_Speed
26 26 25 26 26 26 26 27 28 29 29 29 28 28 28 28 28 28 28 28 27 27 27 27 27 27 27 26 26 26 26 26 26 26 26 25 24 25 26 27 27 27 27
25 25 25 25 25 25 25 26 26 26 26 26 26 25 26 26 25 25 24 24 24 24 24 24 24 24 24 24 24 23 24 24 23 23 23 23 23 23 24 24 25 25 26
24 24 24 24 24 23 24 24 24 23 24 23 23 23 23 23 23 22 22 22 22 22 22 22 22 23 23 22 21 21 21 21 21 21 21 21 21 21 22 23 23 23 23
23 23 23 23 22 21 20 20 21 21 20 20 20 20 20 20 20 19 19 19 19 19 20 20 20 20 20 20 20 19 19 19 20 20 21 20 19 19 20 22 21 21 21
20 20 19 19 18 18 17 17 17 17 17 16 16 17 16 17 17 17 17 17 16 16 16 16 17 17 17 18 18 18 18 18 18 19 19 19 18 18 18 19 19 19 19
16 16 16 15 15 15 15 15 15 14 14 14 13 13 13 14 14 14 15 14 14 14 14 13 13 13 14 14 15 16 16 16 16 16 16 15 15 16 16 16 15 15 16
14 14 13 13 12 12 12 11 11 11 12 12 11 10 11 10 10 11 11 12 12 11 10 10 10 10 11 12 12 13 13 13 13 13 12 12 12 13 13 13 13 13 13
12 12 12 12 11 10 10 10 10 10 9 9 8 8 7 8 8 8 8 8 8 8 8 8 7 8 8 9 9 9 8 8 9 9 9 9 9 9 10 10 9 9 9
11 11 10 10 9 9 9 9 9 8 7 6 6 5 5 4 4 4 4 4 4 5 5 5 5 5 6 6 7 7 6 6 6 6 6 6 6 6 6 6 6 6 7
8 8 8 7 7 6 6 6 6 5 4 3 3 2 2 2 1 1 2 2 2 3 3 3 4 4 5 5 5 5 5 4 4 4 4 3 3 3 3 3 3 3 4
6 6 5 5 5 4 4 3 3 2 2 2 2 1 0 1 1 1 2 4 4 4 4 4 4 3 4 4 4 4 4 4 4 3 3 2 1 1 1 1 1 2 3
4 4 3 4 3 3 3 2 2 1 1 2 2 2 2 3 3 3 4 5 5 5 5 5 4 5 5 5 5 4 4 3 3 3 4 3 2 1 1 0 1 2 3
2 2 3 3 3 3 3 3 3 3 3 3 3 3 4 4 5 6 6 7 7 7 6 6 6 6 6 6 5 5 6 5 4 4 4 4 3 2 2 2 2 2 2
3 3 3 4 4 4 5 4 5 5 5 5 5 6 6 6 7 7 7 8 8 8 7 7 7 7 7 7 7 7 6 5 5 5 5 4 4 3 3 3 3 3 4
4 3 4 4 5 5 6 6 6 7 6 6 6 6 7 8 8 8 9 8 8 9 9 8 8 8 8 8 8 7 7 7 7 7 6 6 5 5 4 4 4 4 5
5 4 5 5 6 7 7 7 7 7 7 8 8 8 9 9 10 10 10 10 10 9 9 9 8 8 8 8 8 8 8 7 7 7 7 7 6 6 5 5 5 6 6
7 6 6 7 7 7 8 8 9 9 9 10 10 10 10 11 11 10 10 10 10 9 9 9 9 8 9 9 8 8 7 7 7 7 7 6 6 6 5 5 6 6 7
8 8 9 9 9 9 9 9 10 10 10 11 11 11 11 11 11 10 10 9 9 9 9 9 9 9 8 8 8 8 7 7 7 6 6 5 5 5 5 6 7 8 9
9 10 10 10 10 10 9 10 10 10 10 11 11 11 11 11 10 10 9 9 9 9 9 9 9 8 8 8 7 7 6 5 5 4 4 4 4 4 5 6 7 8 9
10 10 10 10 9 9 9 9 9 9 10 10 10 10 10 10 9 9 9 9 8 8 8 8 7 7 7 6 6 5 4 4 3 3 3 4 5 6 6 7 8 9 11
10 9 9 9 9 9 9 9 8 8 8 8 8 8 8 8 8 8 8 7 7 7 6 6 6 5 5 4 4 3 3 3 3 4 5 6 6 7 8 9 10 11 12
8 8 8 8 8 8 8 8 8 8 7 7 6 6 6 6 5 5 5 5 4 4 4 4 3 3 3 3 3 2 3 4 5 6 6 7 8 9 10 11 12 13 14
7 6 6 5 6 6 6 6 6 6 5 5 4 3 3 3 2 2 2 2 2 2 1 1 1 2 2 3 3 4 5 6 6 7 8 9 10 11 12 13 14 16 17
5 5 4 4 4 4 4 4 4 4 3 3 2 1 1 1 0 0 1 1 1 2 2 2 3 3 4 5 6 7 7 8 9 9 10 11 12 14 15 16 18 19 21
3 3 2 3 2 2 2 2 2 1 1 1 1 0 1 2 2 3 3 3 4 4 5 5 6 7 7 8 8 9 10 11 11 13 14 15 16 17 18 19 21 22 24
2 1 1 1 1 1 1 2 2 3 3 3 3 3 4 4 5 6 6 7 7 8 8 9 9 10 11 11 12 13 13 14 15 16 17 18 20 21 22 23 24 25 27

GEFSGL_500_meanwind_144.txt.gz
Wind_Speed
27 26 27 27 26 26 25 24 24 24 23 23 22 22 23 24 24 24 24 24 24 24 25 25 25 24 24 24 24 24 24 25 24 24 24 23 24 24 24 24 24 24 23
26 26 26 26 25 24 24 23 23 23 23 22 21 21 21 21 22 22 22 22 23 23 23 23 23 23 23 23 24 24 23 22 22 23 22 22 22 22 22 22 22 22 21
25 24 24 24 24 23 23 22 21 21 20 19 19 19 19 19 19 20 20 21 21 20 20 20 21 22 22 22 22 22 21 21 21 21 20 20 20 20 20 20 19 19 19
22 22 22 21 21 21 20 19 19 18 17 17 17 18 18 18 18 18 17 17 17 17 17 18 18 18 19 19 19 19 19 19 19 18 19 19 18 18 18 18 18 17 16
19 19 18 19 19 18 17 17 17 17 16 15 15 15 15 15 15 15 14 14 15 15 15 15 16 15 16 16 17 17 18 18 18 17 17 17 16 17 17 16 16 15 15
18 18 18 17 16 15 15 15 14 13 13 13 13 13 13 13 12 12 12 13 13 13 13 13 13 13 13 13 13 14 15 15 15 15 15 14 14 14 14 13 13 14 14
16 16 15 15 14 13 12 12 11 11 10 10 10 10 10 10 11 11 11 11 11 11 11 11 11 11 11 11 11 11 11 12 12 12 12 12 12 12 12 12 12 11 11
14 13 13 13 12 11 10 10 10 9 9 8 8 8 7 8 8 9 9 10 10 10 10 9 9 9 9 9 9 9 10 10 10 10 11 10 10 10 10 9 9 9 8
13 12 12 11 10 8 7 8 8 7 7 7 6 6 5 5 5 5 6 7 7 8 8 8 8 8 8 8 8 8 8 8 8 8 8 8 8 7 7 6 6 6 7
11 10 9 9 8 7 6 6 5 5 5 5 5 4 4 4 3 3 3 4 4 4 5 5 5 5 5 6 6 6 6 7 6 6 6 6 5 5 5 5 5 5 5
8 8 8 8 6 6 5 5 5 4 5 4 4 4 4 3 3 2 2 2 2 2 2 2 3 4 4 4 4 4 4 4 5 5 5 5 4 3 3 4 4 3 3
6 6 6 6 5 5 5 5 5 5 5 4 4 4 3 3 3 3 2 1 1 1 1 1 1 2 2 3 3 2 2 3 4 4 5 4 3 2 2 2 2 1 2
5 5 5 4 4 5 5 5 5 6 5 5 4 3 3 3 4 3 3 3 2 2 3 3 3 3 4 4 4 3 3 3 4 4 3 3 2 2 1 1 0 1 2
5 4 4 3 4 4 5 6 6 6 5 5 5 4 4 4 4 4 4 5 5 5 5 5 5 5 5 4 4 4 4 4 4 4 3 2 2 1 1 0 0 1 2
4 4 4 5 5 5 5 5 5 5 6 6 6 6 6 6 6 5 5 6 6 6 6 6 5 4 4 5 5 5 5 5 4 4 3 3 2 1 1 0 1 2 2
4 5 5 5 5 5 5 5 5 6 6 7 7 7 7 7 7 7 7 7 6 7 7 6 6 5 5 5 5 5 5 4 4 3 2 1 1 1 1 2 2 3 3
5 5 5 5 6 6 6 6 6 7 7 7 7 7 8 8 7 7 7 7 6 6 6 6 6 6 5 5 5 4 3 3 3 2 1 1 1 2 2 3 4 4 5
6 6 6 6 6 6 6 7 7 7 7 8 8 8 8 8 7 7 6 6 6 5 5 5 4 4 4 3 3 3 2 2 1 1 1 2 2 3 3 4 5 6 7
6 6 6 6 6 7 7 7 7 7 7 7 7 7 7 7 7 6 6 5 4 4 4 4 4 4 3 3 2 2 1 2 2 2 3 3 4 4 5 6 7 8 9
6 6 6 6 6 6 6 6 6 6 6 6 6 6 6 6 6 6 5 5 4 4 4 3 3 3 2 2 1 2 2 3 3 4 4 5 6 7 8 9 10 11 12
7 6 6 5 5 5 5 5 5 4 4 4 4 4 4 4 4 4 3 4 4 4 4 3 3 3 2 2 3 3 4 5 5 6 7 8 9 10 11 12 13 14 14
6 6 6 6 5 5 5 4 4 3 3 3 3 3 3 3 3 3 2 3 3 3 3 3 4 4 5 5 6 6 7 8 8 9 10 11 12 13 13 14 15 16 17
6 6 6 6 5 5 4 4 3 3 2 2 2 3 3 3 4 3 4 4 4 5 5 6 7 7 8 8 9 9 10 11 12 13 14 14 15 16 16 17 18 19 20
6 5 6 5 5 5 4 4 4 4 3 4 4 5 5 5 6 6 6 7 7 8 9 9 10 10 11 11 12 12 13 14 15 16 17 18 18 19 19 20 21 22 23
5 5 5 5 5 5 5 5 5 6 6 6 7 7 8 8 9 9 10 10 11 11 12 12 13 13 14 15 16 16 17 17 18 20 21 21 22 23 23 24 25 26 27
6 6 6 6 7 7 7 7 8 8 8 9 9 9 10 11 11 12 12 13 13 14 14 15 16 17 18 18 19 20 21 21 22 23 24 25 26 26 27 28 29 30 31

GEFSGL_500_meanwind_150.txt.gz
Wind_Speed
23 24 24 23 23 22 22 22 22 22 22 22 22 22 22 22 21 21 21 21 20 20 21 21 21 22 22 23 23 23 24 24 23 23 23 23 23 23 23 22 22 21 21
22 22 22 21 21 22 21 22 22 22 22 21 20 20 20 20 20 20 20 20 19 19 19 19 19 20 21 21 21 21 21 21 21 21 22 22 21 21 21 21 20 20 20
21 21 21 20 20 21 21 21 20 20 20 19 19 18 18 18 18 18 18 19 18 19 19 18 18 19 19 20 20 20 20 19 19 19 19 19 19 19 19 20 20 19 19
19 19 19 19 19 19 19 18 18 17 16 16 16 16 15 16 16 16 16 17 17 17 17 16 16 16 17 17 18 18 18 17 17 17 17 16 16 17 17 17 18 18 18
17 17 17 17 17 16 15 15 14 15 14 14 14 14 14 14 15 14 14 15 15 15 15 14 14 14 15 15 15 15 14 14 15 15 16 15 15 15 15 15 16 16 16
16 16 16 16 15 14 14 13 13 13 13 12 13 12 12 12 12 12 13 13 12 13 14 13 12 13 13 13 13 13 13 13 13 14 14 14 15 14 14 13 14 14 14
15 15 15 15 14 13 13 12 12 11 10 10 10 9 9 9 10 10 10 10 10 11 11 11 11 11 12 12 11 11 12 12 13 13 13 13 13 12 12 12 12 12 13
13 14 14 13 13 12 11 11 10 9 8 7 7 7 7 7 8 8 8 8 9 9 9 10 10 11 11 10 10 11 11 11 11 11 11 10 10 11 10 10 10 10 10
12 13 12 11 11 11 10 9 8 7 6 5 5 5 5 5 6 6 6 6 7 7 8 8 8 8 9 9 9 9 9 9 9 8 8 8 8 8 9 8 8 8 8
11 11 10 10 9 9 8 7 6 6 6 6 5 5 4 3 3 4 5 4 5 6 6 7 7 7 7 7 6 6 6 6 7 7 7 8 8 8 8 7 7 7 8
9 9 8 8 8 8 7 7 6 6 6 6 6 5 4 3 3 3 3 2 3 3 4 5 5 5 5 5 6 6 5 5 5 6 6 7 7 7 7 7 6 6 6
7 7 6 6 6 6 7 6 6 6 7 6 6 6 5 4 3 2 2 2 1 1 2 2 3 3 3 4 4 4 4 5 5 5 5 5 6 6 6 6 6 6 6
5 5 5 5 6 5 6 7 7 7 7 6 6 5 5 4 3 2 2 1 1 1 1 1 2 3 3 3 3 3 3 4 4 4 4 5 5 6 6 5 6 6 6
5 5 5 5 5 5 5 6 7 6 6 5 5 5 5 4 4 4 3 2 2 2 3 3 4 3 3 3 4 4 4 3 2 2 3 4 4 4 5 5 6 6 6
4 4 5 5 5 5 6 6 6 6 5 5 6 5 5 5 5 4 5 4 4 3 3 3 3 3 3 3 3 3 3 2 2 2 2 3 3 3 3 4 5 5 6
4 4 5 5 5 5 6 6 6 5 5 5 6 6 6 6 6 5 5 4 4 4 3 2 2 2 2 2 2 2 1 1 2 2 2 3 3 4 4 4 4 5 6
5 4 4 4 5 6 6 6 7 7 7 6 7 7 7 7 6 6 5 4 3 3 3 2 2 1 1 1 1 1 1 2 2 2 3 4 4 5 5 5 6 7 8
5 5 4 5 5 5 6 6 6 6 6 7 7 7 6 6 6 6 6 5 4 3 2 2 1 0 1 2 2 1 1 2 3 3 4 5 5 6 7 8 9 10 10
5 5 5 5 5 5 5 5 5 5 5 5 5 6 6 6 6 5 5 5 4 3 2 2 2 1 1 2 2 3 3 4 5 6 6 7 8 9 9 11 12 12 13
6 5 5 5 5 5 4 4 4 4 4 4 4 4 5 5 5 5 5 4 4 3 3 3 3 3 3 4 4 5 6 7 8 8 9 10 10 11 12 13 14 15 16
6 6 5 5 5 5 5 4 4 4 4 4 4 4 5 4 5 5 5 5 4 5 5 5 5 6 6 7 7 8 9 10 10 11 11 12 13 13 14 16 17 18 19
6 6 5 5 5 5 5 5 5 5 5 5 5 5 5 6 6 6 6 6 7 7 7 7 8 9 10 10 11 12 12 13 13 13 14 14 15 17 18 19 20 21 22
6 6 5 5 5 5 6 6 6 6 6 6 6 6 7 7 8 8 8 8 9 9 10 11 11 12 12 13 14 15 15 16 17 18 18 19 20 21 22 23 24 24 25
6 6 5 5 5 6 6 7 7 7 8 8 9 9 9 10 10 11 11 12 12 12 13 14 14 15 16 16 17 17 18 19 20 21 22 23 23 24 25 26 27 28 28
7 6 6 6 6 7 7 7 8 9 9 10 10 11 11 12 13 13 14 15 15 15 16 17 18 18 19 20 20 21 22 23 24 24 25 25 26 27 28 28 29 30 31
7 7 7 8 8 9 9 10 10 11 11 12 13 13 13 14 15 16 17 17 18 18 19 20 21 21 22 22 23 24 24 25 26 27 28 29 29 30 31 31 32 32 33

GEFSGL_500_meanwind_156.txt.gz
Wind_Speed
24 24 24 24 23 23 23 23 23 23 23 23 23 23 23 23 23 23 23 23 23 22 22 22 22 22 23 23 24 24 24 24 25 25 25 25 25 25 25 25 24 24 24
22 22 22 22 22 22 22 22 21 22 22 22 22 22 21 21 21 21 22 22 21 20 21 21 21 21 21 22 22 22 23 23 23 23 23 24 24 24 24 24 24 24 24
20 20 20 20 20 20 20 20 20 20 20 20 20 20 20 19 19 18 18 18 19 19 19 19 19 19 20 20 20 21 21 21 21 22 22 22 22 22 23 24 24 23 23
19 18 19 19 19 19 19 18 18 18 17 17 17 17 16 16 16 15 15 15 15 16 17 17 18 18 18 18 19 19 20 20 20 21 21 21 21 21 21 21 22 22 22
18 17 18 18 18 18 17 17 16 16 16 16 15 15 14 13 13 13 13 14 14 15 16 16 17 17 17 17 17 17 18 18 18 19 19 19 19 20 20 19 20 20 20
16 16 17 16 17 17 17 17 17 16 15 14 14 13 12 11 10 10 11 12 12 12 13 14 15 15 15 15 15 16 16 16 16 16 16 16 16 17 17 17 17 17 17
15 15 15 15 15 15 16 15 15 14 13 13 12 12 11 10 9 9 9 9 9 9 9 10 11 11 12 13 13 14 14 15 15 14 14 14 14 14 14 15 15 15 15
13 14 14 14 14 14 14 13 13 12 12 12 11 10 10 9 8 8 9 8 8 7 8 8 9 9 9 10 11 12 13 13 13 13 13 13 13 13 13 13 13 14 14
12 13 13 13 12 12 12 12 12 12 12 11 10 9 8 8 8 7 7 7 7 6 6 7 7 8 8 8 8 9 9 10 11 11 11 11 12 11 12 12 12 12 13
11 11 11 11 11 11 11 11 11 11 12 11 10 10 9 8 8 7 6 5 5 5 5 5 5 6 6 6 6 7 8 9 10 10 9 10 11 11 11 11 12 12 13
10 10 11 11 10 10 10 10 10 11 11 11 10 10 9 8 8 7 6 5 5 5 5 4 4 4 4 4 5 6 7 8 8 8 8 8 9 10 11 11 12 12 12
10 10 10 10 10 10 9 10 10 11 11 11 11 10 9 8 8 7 7 6 5 4 4 3 4 3 3 3 4 5 5 5 6 6 7 8 8 9 10 11 11 12 12
9 9 9 10 9 9 10 10 10 10 10 10 11 10 10 9 8 7 7 6 5 4 3 3 3 2 2 2 3 3 4 5 5 6 6 7 8 9 10 10 10 11 11
8 8 8 9 9 9 9 10 10 10 10 10 10 10 10 9 8 7 7 7 5 4 4 3 2 2 2 1 2 3 4 5 6 6 6 7 7 8 8 9 10 10 11
8 8 8 8 8 9 9 10 10 10 10 10 10 9 9 9 8 7 8 6 5 5 4 3 3 3 2 2 3 3 4 5 6 6 7 7 8 8 9 9 10 10 11
7 8 7 7 7 8 9 9 10 11 11 11 10 9 9 9 8 8 7 6 5 5 4 4 3 3 3 3 4 4 4 5 6 7 7 8 9 10 10 10 11 11 11
7 7 8 7 7 7 8 8 9 10 11 11 10 10 10 9 9 8 7 6 6 5 5 5 4 4 5 6 6 6 7 7 8 8 9 9 10 11 11 11 12 12 13
7 7 7 7 7 7 7 8 9 10 10 11 11 11 10 10 9 7 6 6 6 6 6 6 6 6 7 8 8 8 8 9 9 10 11 11 12 12 13 13 14 15 15
7 8 8 7 7 8 8 9 9 10 10 10 10 10 10 10 9 8 8 8 7 7 7 7 8 8 9 9 10 10 11 11 12 13 13 14 15 15 15 16 16 17 18
8 8 8 9 8 9 9 9 9 10 10 10 10 10 10 10 10 10 9 9 9 9 9 10 10 10 11 11 12 13 13 14 15 15 16 17 18 18 19 19 20 22 22
8 8 8 8 9 9 9 10 10 10 10 11 11 11 11 11 11 11 10 10 11 11 11 12 13 13 14 14 15 16 16 17 17 18 19 19 20 21 21 22 23 24 25
8 9 9 9 9 10 10 10 11 11 12 12 12 12 12 12 12 12 12 12 12 13 14 15 16 16 17 18 18 19 20 20 20 20 21 21 22 23 24 25 25 26 26
9 9 10 10 10 11 11 11 12 12 13 13 13 13 14 14 15 15 15 15 16 16 17 17 18 19 20 20 21 21 22 22 22 23 23 24 24 25 26 27 28 28 28
9 10 11 11 12 12 13 13 13 14 14 14 14 15 15 16 17 17 18 18 19 20 20 21 22 22 22 23 23 23 24 24 25 25 26 27 27 28 28 29 30 30 31
10 11 12 13 13 14 14 15 15 16 16 16 16 17 18 19 20 20 21 22 22 22 23 24 25 25 25 25 26 26 27 27 28 29 30 30 31 31 32 32 33 34 34
12 13 13 14 14 15 16 16 17 17 18 18 19 20 21 22 23 23 24 24 25 25 26 26 27 27 27 27 28 28 29 30 30 31 32 33 33 34 34 35 35 36 36

GEFSGL_500_meanwind_162.txt.gz
Wind_Speed
23 22 22 22 22 22 22 22 22 23 22 21 21 21 21 21 21 21 20 20 21 20 20 20 21 21 22 22 22 21 21 22 22 21 21 22 23 22 22 23 23 23 23
21 21 22 21 21 21 21 21 21 21 21 20 20 19 19 20 20 20 19 18 19 19 19 19 19 20 20 20 20 21 21 21 21 21 21 21 22 22 22 22 21 21 22
20 20 20 20 19 20 20 20 20 20 18 18 18 18 17 17 17 17 17 17 18 18 18 18 18 19 20 19 19 20 20 20 20 20 20 21 21 22 22 22 22 21 21
19 19 19 19 19 19 19 18 18 17 16 16 16 17 16 15 15 15 15 15 16 16 15 16 17 17 18 19 19 19 19 20 20 20 20 20 20 21 21 22 21 21 21
18 18 18 18 18 17 17 17 17 16 16 16 16 16 14 14 14 14 13 13 12 12 13 13 14 15 16 17 18 18 18 19 19 20 19 19 19 20 20 21 20 20 20
17 16 16 16 16 16 16 16 16 16 15 15 15 13 12 12 12 12 11 11 10 10 10 10 11 12 13 15 16 17 18 18 19 19 19 19 18 18 19 19 19 18 18
15 15 15 15 14 14 14 15 15 15 14 14 13 12 11 12 11 11 9 8 8 8 9 9 10 10 11 12 13 15 15 16 17 17 18 17 17 17 17 17 17 17 17
14 14 14 14 13 13 13 13 14 14 14 14 13 13 12 12 11 10 10 9 9 8 8 8 8 9 10 10 11 12 13 14 15 15 15 16 16 15 15 15 15 16 15
13 13 13 12 12 12 12 13 13 14 14 14 13 12 12 11 10 10 9 8 8 7 6 6 6 6 7 8 9 10 11 11 12 12 13 13 13 13 13 14 14 14 15
12 12 12 11 11 12 12 12 13 13 13 13 12 11 11 10 10 9 8 8 7 6 5 5 5 5 6 6 7 8 9 10 10 11 11 11 11 11 12 12 13 14 14
11 11 10 10 11 11 11 12 12 12 12 12 12 11 10 10 9 8 8 7 7 6 5 5 4 3 4 4 5 7 7 8 8 9 9 10 11 11 11 12 13 14 14
10 10 10 10 10 11 11 11 11 11 11 12 12 11 10 10 9 8 7 7 6 5 5 4 3 3 3 3 4 5 5 6 7 7 8 9 11 11 11 12 13 13 14
9 9 9 10 10 10 10 10 10 10 11 11 11 11 11 10 9 8 7 6 6 5 5 5 4 4 4 4 4 4 4 5 6 7 8 9 10 10 11 12 13 13 14
8 8 8 8 9 9 9 9 10 10 10 11 11 11 10 9 9 8 7 6 6 6 5 4 4 4 4 5 4 4 5 6 7 8 8 9 9 10 11 12 13 14 15
7 8 7 8 9 9 9 9 10 10 11 11 11 10 10 9 9 8 7 7 6 6 5 5 5 5 4 4 5 5 6 7 8 9 9 10 11 11 12 12 13 14 14
7 7 7 8 8 8 9 9 10 11 11 11 10 10 9 9 9 8 7 7 7 6 6 6 6 6 6 6 6 6 7 8 9 10 11 12 12 13 14 14 15 15 16
6 7 8 8 8 8 9 10 10 10 10 10 10 10 9 9 9 9 8 8 8 7 7 6 7 7 8 8 8 9 10 11 12 13 13 14 14 15 16 16 17 18 18
7 8 8 9 10 10 9 10 10 10 10 10 10 10 10 10 10 10 10 9 9 9 9 8 9 9 10 10 11 12 13 14 14 15 15 16 16 17 17 18 19 19 20
8 9 9 10 10 10 9 10 10 10 10 10 11 11 11 11 11 11 11 11 11 11 11 11 11 11 12 14 15 15 16 17 17 18 18 18 19 19 20 20 21 21 22
8 9 9 10 11 11 10 10 11 11 11 11 12 12 12 12 12 12 12 12 12 13 13 13 14 15 16 16 17 17 18 19 20 20 21 21 21 22 22 23 22 23 23
8 9 10 11 11 11 11 11 12 12 13 13 13 13 13 14 14 14 15 15 15 15 15 16 17 17 18 19 20 20 21 21 22 22 23 23 24 24 24 24 25 26 26
8 9 10 11 11 12 12 13 14 14 14 15 14 14 14 15 16 17 18 18 18 18 19 19 20 21 22 22 23 23 24 24 24 24 25 25 25 26 26 27 27 28 28
9 10 11 12 13 13 13 14 14 15 15 15 15 16 16 17 18 19 20 20 20 21 21 21 21 22 23 23 24 24 24 25 25 26 26 27 27 28 28 29 29 30 31
10 11 12 13 14 14 15 16 16 16 16 17 18 18 19 20 20 21 21 21 22 22 23 24 23 24 24 24 25 25 25 26 27 27 28 28 28 29 29 30 30 31 32
12 12 13 14 15 16 17 17 18 18 19 19 20 21 21 22 22 23 23 23 23 24 25 25 26 26 26 27 27 27 27 28 28 29 29 29 29 30 31 31 32 32 33
13 14 15 16 16 17 18 19 20 20 21 21 22 23 23 24 24 25 25 25 26 26 27 27 28 28 28 28 29 29 30 31 31 31 32 32 32 32 33 34 34 35 35

GEFSGL_500_meanwind_168.txt.gz
Wind_Speed
23 23 22 23 23 24 25 26 26 26 24 23 22 21 21 21 22 21 21 21 21 21 21 22 22 22 21 22 22 21 21 21 20 20 21 21 21 21 21 21 22 21 21
22 21 20 22 22 23 25 25 25 24 23 22 21 21 21 21 20 20 19 20 20 19 19 19 20 20 20 21 22 22 21 20 20 20 20 20 20 20 20 20 21 21 21
20 19 20 21 22 23 24 24 24 23 21 21 20 21 20 20 20 19 19 18 19 18 19 18 18 18 19 20 20 21 21 20 20 21 21 20 20 19 19 19 20 20 21
19 20 20 21 21 22 23 23 22 21 20 20 20 20 19 19 19 19 18 18 17 17 17 17 17 17 17 18 19 19 20 21 21 20 20 20 20 19 19 19 19 20 20
19 19 20 20 21 21 22 22 21 20 19 19 19 19 18 18 18 18 18 17 17 16 15 15 15 15 15 15 17 17 18 19 20 20 20 19 19 18 18 19 19 19 20
18 18 19 20 21 21 21 21 20 19 19 18 18 17 17 17 17 17 17 17 16 15 15 14 14 14 14 14 15 15 16 17 18 18 18 19 19 18 18 19 19 19 19
18 18 19 19 20 19 19 19 19 19 19 18 18 17 17 17 17 16 15 16 15 14 14 13 13 13 13 13 13 14 14 15 15 16 17 17 18 18 18 19 19 19 18
17 18 18 18 18 18 19 19 19 19 19 18 17 16 16 16 16 16 16 15 14 14 13 12 12 11 11 11 12 12 13 13 14 15 15 15 16 17 17 17 18 18 18
17 17 17 17 17 18 19 19 19 18 17 17 16 16 15 15 16 16 16 14 13 13 12 11 10 9 9 8 9 9 10 11 12 13 14 15 15 16 16 17 17 18 18
15 15 17 17 17 17 18 18 18 17 16 16 16 15 15 15 15 15 15 14 13 11 11 10 9 9 8 7 7 8 9 10 11 12 13 14 14 15 15 16 17 17 17
14 15 16 17 16 16 16 17 16 16 16 16 16 15 14 14 14 14 13 12 12 11 11 10 9 8 8 7 7 7 8 9 11 12 12 13 13 14 14 15 16 16 17
13 14 15 16 16 16 15 16 16 16 16 15 15 14 14 14 14 13 13 12 12 12 11 9 9 8 8 8 8 8 9 10 10 11 12 12 13 14 14 15 16 16 17
12 13 14 15 15 16 15 15 15 15 15 15 14 14 14 14 13 13 13 12 12 12 11 11 10 9 9 9 9 10 10 10 10 10 11 12 13 14 14 14 15 16 17
11 12 13 14 14 14 14 15 15 15 15 15 15 15 15 14 14 13 13 12 12 12 11 11 11 10 10 10 10 10 10 10 10 11 12 13 14 14 15 15 16 17 17
11 12 13 14 14 14 14 14 15 15 15 15 15 15 15 14 14 14 14 13 13 12 12 12 12 12 11 11 11 11 10 11 11 12 13 13 14 15 16 17 17 18 19
10 11 12 14 13 14 14 14 15 15 15 15 15 15 15 15 14 14 14 14 13 13 13 14 14 14 13 13 13 13 13 13 14 14 15 15 16 17 18 18 19 19 19
10 11 12 13 14 14 15 14 14 15 15 15 15 15 15 15 15 15 15 15 15 15 15 16 15 15 15 15 15 15 15 16 16 17 18 18 19 19 19 20 20 21 21
10 11 13 14 15 15 15 15 15 15 15 15 15 15 15 15 15 15 15 16 16 17 17 17 17 17 17 17 17 16 17 18 19 19 19 20 20 20 21 21 22 22 23
10 11 12 13 14 15 15 15 15 15 15 16 16 16 16 17 16 17 17 18 18 18 18 19 19 19 19 19 19 20 20 20 21 21 21 22 22 22 22 23 23 24 25
10 11 12 13 15 15 16 16 16 16 16 17 18 18 18 18 18 18 19 20 20 20 20 20 21 21 21 21 21 21 22 22 22 22 23 23 24 25 25 25 26 26 26
10 12 13 14 15 16 16 17 17 18 17 17 18 19 19 19 20 20 21 21 21 22 22 22 22 22 23 23 23 23 23 24 24 24 24 24 25 26 26 26 26 27 28
12 13 14 15 15 16 17 17 18 18 18 19 19 20 20 21 22 22 22 22 23 23 24 24 25 25 25 25 25 26 25 25 26 27 26 26 26 27 27 28 28 28 28
14 14 15 16 16 17 17 18 19 19 19 20 20 21 21 22 23 23 23 23 24 24 25 27 27 27 28 28 28 27 27 27 28 29 29 28 28 28 29 29 30 31 31
15 15 16 16 17 18 19 19 20 21 22 22 23 23 23 24 25 25 25 25 26 26 26 27 28 28 28 29 29 28 28 29 29 29 29 30 30 31 31 31 31 31 32
15 16 17 17 18 19 20 21 22 23 24 24 24 25 25 25 26 27 26 27 27 27 27 28 29 30 30 29 29 29 30 31 31 32 32 32 31 32 32 32 33 33 34
16 17 17 18 19 20 21 22 23 24 25 25 25 26 27 27 27 28 28 28 28 29 29 29 30 31 31 31 31 30 30 31 31 32 33 34 34 34 33 33 33 33 34

GEFSGL_500_meanwind_174.txt.gz
Wind_Speed
20 20 20 21 23 23 23 22 22 22 22 22 22 22 22 21 21 21 20 20 20 20 19 19 19 18 18 19 20 20 20 21 22 23 24 24 24 25 25 24 24 24 24
20 20 20 22 22 23 22 22 22 22 22 22 22 21 21 21 20 20 20 20 19 18 18 19 18 18 16 18 19 18 18 19 21 22 23 23 24 24 23 24 24 24 24
19 20 20 21 22 22 21 22 21 21 21 22 21 21 21 21 20 20 20 19 19 18 18 17 17 16 16 16 16 16 17 18 19 20 21 22 24 24 22 23 24 25 24
19 19 19 20 21 21 21 21 21 21 22 22 21 21 21 20 19 20 20 19 18 17 16 16 15 15 16 16 15 15 15 15 16 18 19 20 22 24 23 23 24 25 25
18 19 19 20 21 21 21 20 21 21 21 21 21 21 20 20 20 20 19 19 17 16 15 15 15 14 14 13 14 14 14 14 15 16 17 19 20 22 22 22 23 24 25
18 19 19 20 21 21 21 20 20 20 20 21 20 20 20 19 19 19 18 17 15 14 14 14 14 13 13 12 13 14 14 14 15 15 16 18 19 20 21 20 21 22 23
17 18 19 19 20 20 20 20 19 20 20 19 20 19 19 19 18 18 17 17 16 14 14 14 13 13 12 12 13 13 13 13 13 14 14 15 17 18 19 19 20 20 21
18 18 18 18 19 20 19 19 18 18 19 19 18 18 18 18 18 17 16 15 15 14 14 13 13 12 12 12 12 12 11 12 13 13 13 13 14 16 17 18 19 20 20
16 17 16 17 18 18 17 17 17 18 19 18 18 17 17 17 17 16 15 14 14 13 13 12 12 11 11 11 11 10 11 11 11 11 11 12 13 15 16 17 19 20 20
15 15 15 16 16 16 16 16 17 17 17 17 17 16 16 16 15 14 14 13 13 12 12 11 11 11 10 10 10 9 9 9 9 10 11 13 14 15 16 18 19 19 20
14 14 14 15 16 16 15 16 17 16 16 16 16 15 14 14 14 14 14 14 13 12 12 11 11 11 10 10 10 9 9 9 9 10 11 13 14 15 16 18 19 20 20
13 13 14 15 15 15 15 15 15 16 15 15 15 15 14 14 14 14 14 14 13 13 12 12 11 10 10 10 10 10 10 10 11 12 13 14 15 15 16 18 19 20 21
12 12 12 14 13 14 14 14 15 16 15 15 15 15 15 15 15 14 14 14 13 13 12 12 11 11 11 11 12 12 11 12 12 13 13 14 15 16 17 18 19 20 21
11 11 12 13 13 13 14 15 15 16 15 15 15 16 16 16 15 15 14 14 14 13 13 13 13 13 13 13 13 13 13 13 14 15 15 15 16 17 18 19 20 20 21
11 11 11 12 13 14 14 15 15 15 15 15 16 16 16 16 16 15 14 14 14 14 15 14 14 15 15 15 15 15 16 16 16 17 17 17 18 18 18 20 20 21 22
10 11 11 12 13 15 15 15 15 15 16 16 16 17 16 16 16 16 15 15 15 15 15 16 16 17 17 17 17 17 17 18 18 19 19 19 19 19 19 20 21 21 22
10 10 11 12 13 14 14 15 15 15 16 16 17 17 17 16 16 16 16 17 16 16 17 17 17 17 18 18 19 18 19 19 19 20 20 21 21 21 21 21 22 23 24
9 10 11 12 13 14 14 14 15 16 16 17 18 18 17 17 17 18 17 18 18 19 19 19 19 20 20 20 20 20 20 21 21 22 22 21 21 22 23 23 24 25 26
10 11 13 13 14 14 14 14 16 17 17 18 18 19 19 19 19 19 19 18 19 20 21 21 21 21 21 21 22 22 22 22 22 23 23 23 23 23 24 24 25 26 26
11 12 13 13 14 14 14 15 16 17 18 19 20 20 20 20 20 20 20 20 21 22 22 22 22 21 21 22 22 22 23 23 23 23 23 23 23 24 25 25 26 27 27
12 12 13 13 13 14 15 16 17 18 19 20 21 21 21 21 20 21 21 23 23 23 23 22 22 22 23 23 24 25 24 24 24 24 24 24 25 25 26 26 27 27 27
11 12 13 14 14 15 16 17 18 19 20 21 22 22 21 21 22 22 23 23 23 23 23 23 23 24 25 25 25 25 25 25 25 25 25 25 26 26 26 27 27 28 29
11 12 13 14 15 16 17 18 19 20 22 22 22 23 23 23 24 24 25 25 25 25 25 25 26 27 27 27 26 25 25 25 25 25 26 26 26 27 27 27 27 28 29
12 13 14 15 16 17 18 19 20 21 22 23 23 23 24 25 25 26 26 26 26 26 27 27 28 28 27 27 26 26 26 26 26 27 27 28 27 27 27 28 29 29 29
14 14 15 16 17 18 19 20 21 22 23 24 25 25 26 27 27 27 27 27 28 29 29 29 29 28 28 27 27 27 28 28 28 29 29 29 28 28 28 27 28 28 28
15 15 16 17 18 20 21 22 23 24 25 26 26 27 28 28 28 28 29 30 30 30 29 29 30 30 29 28 28 28 28 28 28 29 29 29 29 29 29 28 28 28 28

GEFSGL_500_meanwind_180.txt.gz
Wind_Speed
20 21 21 20 21 21 21 22 22 23 23 24 24 25 25 26 25 25 25 24 23 23 22 22 22 23 22 22 22 21 21 21 20 21 22 24 25 27 29 30 30 30 30
19 19 19 19 19 20 21 22 22 22 23 23 24 25 25 25 25 25 24 23 23 23 22 22 22 22 22 21 21 20 20 19 19 19 19 21 23 24 25 27 28 28 29
17 18 19 20 19 20 21 21 21 21 22 23 24 25 25 25 25 24 23 23 23 23 22 21 20 19 19 19 19 18 18 18 17 17 18 19 21 22 23 25 26 27 28
18 17 17 19 20 20 20 20 21 21 22 22 24 24 24 24 24 23 22 22 22 22 21 20 19 19 18 18 17 17 17 17 17 17 18 19 20 21 21 22 23 25 26
16 16 18 18 18 19 19 19 20 21 21 22 22 23 23 23 23 23 22 21 21 21 20 20 19 18 18 17 16 16 16 16 16 16 17 18 19 20 21 21 22 23 25
15 16 17 18 18 18 19 19 20 21 21 21 21 22 22 22 22 21 21 20 20 20 20 19 18 18 17 16 15 15 15 15 15 16 16 16 18 19 20 21 22 22 23
16 16 18 17 17 19 19 20 20 20 21 21 22 22 22 21 21 20 20 19 19 19 19 19 18 17 16 16 15 15 15 14 14 15 15 16 16 17 18 18 19 20 21
16 16 17 17 18 19 19 19 19 19 19 21 22 21 21 20 20 20 19 19 19 18 18 17 16 15 15 15 15 15 15 14 14 14 15 15 16 16 17 17 18 19 20
15 16 16 16 17 17 17 18 18 19 20 20 21 21 20 20 20 19 20 18 17 17 17 16 15 15 15 15 14 14 14 14 14 15 14 14 15 16 16 17 18 19 19
14 15 16 16 16 17 19 19 18 19 20 20 20 20 20 20 19 19 18 18 17 17 16 16 15 15 15 15 15 14 14 14 14 14 14 15 15 16 17 18 19 19 20
14 15 14 15 16 17 18 19 19 19 18 19 20 20 20 20 19 18 18 18 17 17 17 16 16 16 15 15 15 14 14 15 15 15 14 15 16 17 18 18 19 20 20
12 13 14 15 16 17 18 18 18 17 18 19 19 20 20 19 19 19 19 18 18 18 17 17 16 16 16 16 16 15 15 15 15 16 16 17 17 18 18 19 20 21 21
12 13 13 14 16 16 17 17 17 17 18 18 19 19 20 20 20 21 20 19 18 17 17 17 17 17 17 16 16 16 16 16 16 17 17 17 18 18 19 19 20 20 21
11 12 13 14 15 15 15 15 16 17 17 18 19 20 20 20 21 20 20 19 19 18 18 18 18 18 17 18 18 18 18 18 18 18 18 18 18 19 19 19 20 21 22
10 11 12 13 14 15 16 16 17 17 18 18 19 20 21 21 22 21 21 20 19 19 19 19 20 20 19 19 19 19 19 20 20 20 20 19 19 19 19 19 20 22 23
10 11 12 13 14 15 15 16 16 18 19 19 20 21 21 22 23 23 22 21 21 20 20 20 21 21 21 21 21 20 21 22 22 22 22 22 21 21 21 22 22 23 23
10 11 12 13 14 15 15 16 17 18 20 21 21 21 21 22 23 23 22 22 21 21 21 22 22 22 22 22 21 22 22 22 23 23 22 21 22 22 22 23 23 24 24
10 11 13 14 14 15 15 17 18 19 20 20 21 21 22 23 24 24 23 23 23 23 22 22 22 23 23 22 22 23 23 23 23 22 22 22 22 22 23 24 24 24 24
11 12 13 14 14 15 16 18 19 20 20 21 22 23 23 24 25 24 24 24 24 24 24 24 24 24 24 24 24 24 25 25 24 24 24 24 24 24 24 23 24 24 24
11 12 13 14 14 15 16 18 19 20 21 22 23 24 24 25 25 25 26 25 25 25 26 26 25 26 25 25 25 26 26 26 26 25 25 25 24 24 24 24 24 24 24
12 13 14 15 15 16 17 18 20 21 22 23 24 25 26 26 27 27 28 27 27 27 27 27 27 26 26 27 27 27 26 26 26 26 25 25 24 24 24 24 25 25 25
13 14 14 15 16 17 18 19 21 22 23 24 25 26 28 28 28 29 29 29 28 28 28 28 28 28 28 27 26 26 25 24 24 23 24 24 24 24 25 25 25 25 25
14 14 15 16 17 17 19 20 22 23 24 25 27 28 29 29 30 30 30 30 29 29 29 28 29 29 28 27 26 25 25 24 24 24 24 25 24 25 25 25 25 25 25
14 15 16 17 17 19 21 22 23 25 26 27 28 29 30 31 31 31 31 31 30 30 30 30 29 29 29 28 27 26 25 25 24 25 25 25 25 25 25 25 25 25 25
15 16 16 17 19 20 22 23 24 26 27 28 29 29 30 31 32 32 32 32 31 32 32 31 31 30 30 29 27 26 26 25 25 25 25 25 25 25 25 25 25 25 26
15 16 17 18 20 22 23 24 26 27 28 29 30 31 31 32 33 34 34 34 34 33 33 33 32 31 30 29 29 28 27 27 26 26 26 26 25 25 25 25 25 26 26

GEFSGL_500_meanwind_186.txt.gz
Wind_Speed
23 23 23 24 24 23 22 23 23 24 24 24 24 23 23 24 24 24 24 25 25 25 25 25 25 25 24 23 23 23 22 22 22 21 22 23 23 23 25 27 29 29 29
23 22 22 22 22 21 21 22 22 23 24 24 24 23 23 24 23 23 24 25 24 24 24 24 24 23 23 22 21 21 21 21 21 20 20 21 21 21 22 23 25 27 27
21 21 21 20 21 20 19 20 20 21 22 22 22 22 22 23 22 23 24 24 24 24 23 23 23 23 22 21 20 20 20 20 19 18 18 19 20 21 21 22 23 24 26
20 19 19 19 19 18 18 19 19 20 21 22 22 21 22 22 22 23 24 24 23 23 23 23 23 22 22 20 20 19 19 19 18 17 17 17 18 20 20 21 22 24 25
18 18 17 18 18 18 18 18 19 20 21 22 21 22 22 22 22 23 23 23 23 23 22 22 22 21 20 19 18 18 18 17 17 17 17 17 17 18 18 19 21 22 22
17 17 17 18 18 18 17 18 18 19 20 21 21 22 22 22 21 22 23 23 23 22 21 21 21 20 19 18 17 17 17 17 17 17 17 17 17 17 18 18 20 21 21
16 16 16 17 17 17 17 17 17 18 19 20 21 21 22 22 21 22 22 22 22 22 21 21 20 20 19 18 18 18 19 19 18 18 18 17 17 17 18 18 19 20 21
14 14 16 16 16 16 17 17 17 17 18 19 20 20 20 21 22 21 22 22 21 21 20 20 20 19 18 19 19 19 19 19 19 18 18 18 17 17 18 18 19 19 20
13 13 14 15 15 16 16 17 17 17 18 18 18 19 20 21 22 22 22 22 22 21 20 20 19 18 18 18 18 18 17 17 18 17 17 17 17 17 18 18 19 19 19
13 13 14 14 15 15 15 16 15 16 16 17 17 19 20 20 21 22 22 21 21 21 20 19 19 18 17 17 17 17 17 17 18 18 18 17 16 16 17 17 18 18 18
12 12 12 14 14 14 14 15 15 15 16 16 17 18 19 20 21 21 22 21 21 21 20 19 19 19 18 18 18 17 17 17 18 18 18 18 17 17 17 17 17 18 19
10 12 13 14 14 13 14 14 15 15 15 16 17 17 18 20 21 21 21 21 21 20 20 19 19 19 19 19 18 17 17 18 18 18 19 19 19 18 18 19 19 19 20
10 12 12 13 13 13 14 14 14 15 15 16 16 17 18 19 20 21 21 21 21 21 20 20 20 20 19 19 19 19 19 19 19 19 19 19 19 20 20 20 21 21 21
11 12 12 12 13 13 13 14 14 15 15 15 16 17 18 20 21 21 22 22 22 22 21 21 20 20 20 20 20 20 19 19 20 20 20 19 19 20 21 21 21 22 22
10 11 12 12 12 12 13 14 14 15 15 16 17 18 19 21 22 23 23 24 24 23 23 22 21 22 22 21 22 21 21 21 20 21 20 20 20 20 20 21 22 22 22
10 11 12 12 12 13 14 14 15 15 16 17 18 19 20 21 22 23 24 24 24 24 23 23 22 22 22 22 21 21 21 21 21 21 20 20 20 21 21 21 22 22 23
10 11 12 13 13 14 14 15 16 17 18 20 20 21 22 22 23 24 24 25 25 24 24 23 23 23 23 22 22 21 21 21 21 21 21 21 21 21 22 22 23 23 23
10 10 11 13 14 14 15 16 17 18 19 21 21 22 23 23 24 25 25 25 25 25 24 25 25 24 23 23 22 22 22 22 22 22 22 22 23 23 22 23 23 23 23
11 11 12 13 14 15 16 17 18 19 20 21 22 23 24 24 25 26 27 27 26 26 26 26 26 25 24 24 24 23 23 23 22 22 22 22 22 23 23 24 24 24 24
11 11 13 13 15 16 16 17 18 20 21 21 23 24 25 26 27 28 28 28 27 27 26 26 26 25 25 25 24 23 23 23 22 22 21 21 22 22 23 23 24 24 24
11 12 13 14 15 16 17 18 19 21 22 22 24 25 27 27 28 29 29 28 28 27 27 26 26 27 26 25 25 24 23 23 22 21 21 21 22 22 22 23 23 23 24
12 13 14 15 16 17 18 19 20 22 23 24 25 27 28 29 30 30 30 29 28 28 27 26 27 27 26 25 25 24 23 23 22 22 22 22 21 21 22 23 23 24 23
12 13 14 15 17 18 19 20 22 24 24 25 27 28 30 31 31 31 30 29 29 28 28 28 28 28 27 26 25 24 24 24 23 23 23 22 22 22 23 23 23 23 24
12 14 15 17 18 19 21 22 24 25 26 27 29 30 31 32 32 31 31 31 30 29 29 29 30 29 28 26 24 23 23 23 23 23 23 23 22 22 22 22 22 23 23
13 15 16 17 19 20 22 23 25 27 28 29 30 31 32 32 32 31 31 31 30 30 30 30 30 28 28 27 25 24 24 24 24 24 23 23 22 22 22 22 22 23 23
13 15 16 18 20 21 23 25 26 28 29 30 31 32 32 32 32 32 31 31 31 30 30 30 29 29 29 27 26 26 25 25 24 24 23 23 23 22 22 22 21 22 22

GEFSGL_500_meanwind_192.txt.gz
Wind_Speed
25 25 26 25 25 25 26 26 25 26 25 25 25 26 26 26 26 27 27 27 27 27 26 26 26 26 26 26 26 26 26 26 26 26 26 26 26 25 24 24 25 26 28
24 24 24 24 25 25 25 25 25 26 25 25 25 25 25 26 26 26 26 26 27 26 26 26 26 26 26 26 25 26 26 26 26 25 24 24 23 23 23 23 24 25 26
23 24 23 24 24 24 24 24 24 25 25 25 24 25 24 26 26 26 26 25 25 25 25 26 26 26 26 26 26 26 26 25 25 24 24 23 22 22 21 21 22 23 24
23 23 23 23 22 22 22 22 23 23 24 23 23 23 24 25 25 25 24 24 25 25 25 25 26 26 26 26 26 26 26 25 24 24 23 22 21 20 20 19 20 21 23
22 22 21 21 20 20 20 21 22 22 22 22 22 22 23 23 23 23 24 25 25 25 25 25 25 25 26 26 25 25 25 25 23 22 21 21 20 19 19 20 20 21 22
21 20 19 18 19 19 19 19 20 21 21 21 21 21 21 22 22 24 25 25 25 25 24 24 24 25 25 24 24 24 23 23 22 22 21 21 20 19 20 20 21 21 21
18 18 17 17 17 17 17 18 19 19 20 20 20 20 20 21 23 24 24 24 24 24 23 23 23 23 23 22 23 23 23 23 23 23 22 21 20 20 20 21 21 22 21
16 15 16 15 15 16 16 17 18 18 19 19 19 19 20 20 21 22 23 23 22 22 22 22 22 22 22 23 23 23 23 24 24 24 23 22 22 21 21 21 21 21 21
15 15 14 14 15 15 16 17 17 18 18 18 19 19 20 21 21 22 22 22 22 22 21 22 22 22 23 23 23 24 24 24 24 24 24 23 22 22 22 22 22 22 20
15 15 14 14 15 15 16 16 16 17 17 18 18 19 20 20 21 21 22 22 22 22 22 23 23 24 24 24 24 25 24 23 22 22 21 21 21 21 22 22 22 22 21
14 14 14 14 14 15 15 15 16 16 17 18 19 19 20 20 22 22 23 23 23 23 23 24 24 25 24 25 25 25 24 23 22 21 21 20 21 21 22 22 23 23 22
13 13 14 14 14 15 15 16 16 17 18 18 19 19 20 21 22 23 23 24 24 24 24 25 25 25 25 25 25 24 23 23 22 22 21 21 21 21 21 21 21 22 22
12 13 13 14 15 16 17 17 17 18 18 18 19 20 21 22 22 23 23 25 26 26 26 26 26 26 25 25 24 23 23 23 23 22 21 21 21 21 21 20 20 21 22
12 13 13 15 15 16 17 18 18 18 19 20 21 21 22 22 23 24 25 26 27 28 28 28 27 26 25 24 23 23 23 23 22 21 21 20 20 20 20 20 19 20 21
12 13 14 15 16 17 18 18 19 20 20 21 22 22 23 23 24 25 27 28 29 30 30 29 28 26 26 25 24 23 22 22 21 21 21 21 20 20 19 20 21 21 21
12 13 14 15 16 18 18 18 19 20 20 22 22 23 24 24 26 27 28 29 30 31 30 29 28 28 26 25 24 23 22 21 21 21 20 19 19 19 19 20 20 21 21
12 13 14 15 17 17 18 19 19 20 22 22 24 24 25 26 27 28 30 30 31 31 30 28 28 27 26 25 24 23 22 21 21 20 20 19 18 18 19 20 20 21 21
12 13 14 16 17 18 19 20 21 22 23 24 25 25 26 27 28 29 30 30 31 31 29 28 27 26 25 25 25 24 23 22 21 21 21 20 20 19 19 20 21 21 21
12 13 14 16 17 19 20 21 22 23 24 25 26 27 27 28 29 30 30 30 31 31 30 29 28 27 26 26 25 24 23 23 23 22 22 22 21 21 20 20 20 20 21
12 13 14 16 18 19 21 22 23 24 25 26 27 28 29 31 31 31 31 31 31 31 31 30 29 28 27 26 25 24 23 23 22 22 22 22 21 21 21 21 21 21 22
12 13 15 16 18 20 21 23 24 25 26 27 29 30 31 32 32 31 31 31 31 31 30 30 30 28 27 26 25 24 23 22 22 23 23 22 22 22 21 21 22 22 23
12 14 15 17 18 20 22 24 25 26 27 29 30 31 32 32 32 32 31 31 31 31 31 30 29 29 27 26 25 25 24 24 24 23 23 22 21 21 21 21 21 21 21
13 14 15 17 19 20 22 24 25 27 28 30 31 32 33 33 33 33 32 32 31 31 30 29 29 28 27 26 26 25 25 25 24 23 23 22 22 21 20 20 20 20 20
13 14 16 17 19 21 23 25 27 28 29 31 32 33 33 33 33 33 32 32 31 31 30 30 30 29 28 28 27 27 27 26 25 24 24 23 22 21 20 19 19 19 19
13 14 16 18 19 21 23 25 27 29 30 31 32 33 33 34 33 33 33 32 31 31 31 31 30 31 30 30 29 28 28 27 26 24 23 22 22 21 20 19 19 19 18
13 15 16 18 20 22 24 26 28 30 31 32 33 34 34 34 34 34 33 33 32 32 32 32 32 32 32 31 30 29 28 27 25 24 23 22 21 20 19 18 18 17 17

GEFSGL_500_meanwind_198.txt.gz
Wind_Speed
20 21 21 22 23 23 23 23 23 23 23 24 24 24 24 24 24 24 25 25 24 24 24 25 25 25 25 24 25 25 25 26 26 26 27 28 28 28 29 29 30 30 30
20 21 21 21 21 21 22 22 22 23 23 23 23 22 22 23 24 24 24 24 24 24 24 24 24 25 25 25 25 26 26 26 27 27 26 26 27 28 28 29 29 30 30
19 20 20 20 20 20 21 22 22 21 21 21 21 21 22 23 23 23 23 23 23 23 24 24 24 24 24 25 26 26 26 26 26 26 26 26 26 26 26 27 27 28 28
19 19 19 19 19 20 20 20 20 20 21 21 21 21 21 21 21 22 22 22 23 23 24 24 24 24 24 26 26 26 26 26 26 26 26 26 26 26 26 26 26 27 28
19 19 19 19 19 19 19 19 19 19 20 20 20 20 20 21 21 22 22 22 21 22 23 24 24 24 24 25 25 25 25 26 26 26 25 26 26 27 27 27 26 26 27
18 18 18 18 18 19 19 18 18 18 19 20 19 20 20 21 21 21 21 21 21 22 23 23 23 24 25 25 25 25 25 25 25 25 25 26 26 26 26 26 26 26 27
17 17 18 18 18 18 17 17 17 18 18 18 19 20 20 21 21 20 20 21 21 22 23 24 25 26 26 25 25 25 25 25 25 25 26 25 25 25 26 26 26 26 26
16 17 17 17 16 16 16 16 16 17 17 18 18 19 20 20 19 20 21 22 23 23 24 25 26 27 26 27 26 26 26 26 27 27 27 26 26 26 26 25 25 25 26
16 16 16 16 16 15 15 15 15 15 17 18 18 19 20 20 20 21 22 23 24 24 25 26 26 26 26 27 26 26 26 27 28 28 28 27 27 26 26 26 25 24 24
14 15 15 16 15 15 15 15 16 17 17 18 18 19 20 20 21 22 23 24 25 26 27 27 27 27 27 27 26 26 27 27 28 27 27 26 26 25 25 25 25 25 25
14 14 15 15 15 15 15 15 16 17 17 18 19 20 21 21 22 24 24 25 26 27 28 28 28 28 27 27 26 26 26 26 25 24 24 24 24 24 24 24 24 23 24
13 14 15 14 14 15 15 15 16 17 18 19 20 21 22 22 23 25 26 27 28 28 29 28 28 27 27 27 25 24 24 24 24 23 23 22 22 23 23 22 22 22 22
13 15 15 14 14 15 16 16 17 18 19 20 21 21 22 23 25 26 27 28 29 29 28 28 27 26 26 26 25 23 23 22 22 21 21 21 21 20 20 21 21 21 22
13 14 14 14 15 16 16 17 17 18 20 21 21 22 23 24 26 27 28 28 29 29 28 28 26 25 25 24 23 23 22 22 21 20 21 20 19 18 19 19 19 20 20
14 14 14 15 16 17 17 17 18 19 20 21 22 23 24 26 27 28 29 28 28 28 28 27 26 25 24 23 22 22 21 21 21 20 19 19 19 20 20 19 19 20 20
13 14 14 15 16 17 18 18 19 20 21 22 23 24 26 27 29 29 29 29 29 28 28 27 26 25 24 22 21 21 21 21 21 20 20 19 19 19 19 19 18 19 19
12 13 14 15 16 17 18 19 20 21 22 23 25 26 28 29 29 29 30 30 30 29 28 27 26 25 24 23 22 21 21 21 21 21 20 19 18 18 17 17 18 18 19
12 13 14 15 16 17 18 19 20 21 23 24 26 27 28 29 30 30 30 30 29 28 27 26 25 25 26 25 23 23 22 22 21 20 19 19 18 18 18 18 18 18 19
11 13 14 15 16 17 18 20 21 23 24 26 26 27 29 30 31 31 30 29 29 28 28 27 27 26 27 26 24 24 23 23 22 21 20 19 18 18 18 18 18 18 19
11 13 14 15 16 17 19 21 22 23 25 26 27 29 29 30 31 31 30 30 30 29 29 28 28 27 27 27 25 24 24 23 23 22 21 20 19 18 18 17 18 18 19
11 13 14 15 16 18 19 21 23 24 25 27 28 29 30 30 30 30 31 31 31 30 30 29 29 28 28 27 26 26 26 25 24 23 22 20 20 19 18 17 17 17 17
11 12 13 15 16 18 20 21 23 25 26 28 29 29 30 30 30 31 31 32 32 32 31 30 29 29 28 28 28 27 27 27 25 24 22 21 19 18 17 16 15 15 15
11 12 14 15 17 19 20 22 24 26 27 28 29 29 29 30 30 31 31 32 32 32 31 30 29 29 29 29 29 29 28 28 27 25 23 21 19 18 17 16 15 15 14
11 13 14 16 17 19 20 23 25 26 27 29 29 30 30 30 31 31 31 32 32 32 32 31 30 30 30 30 31 30 29 29 27 26 24 21 19 18 16 15 14 14 13
11 13 15 17 18 19 21 22 24 26 27 29 29 30 30 31 31 32 32 32 33 33 32 32 31 31 31 31 31 31 30 29 28 26 24 22 20 19 17 15 14 14 13
11 13 15 17 18 19 21 22 24 26 28 29 29 30 30 31 32 32 32 33 33 33 32 32 32 31 32 32 32 32 31 30 28 26 25 24 22 20 18 16 14 14 13

GEFSGL_500_meanwind_204.txt.gz
Wind_Speed
17 19 20 21 20 20 21 21 22 23 23 23 23 23 23 23 24 25 25 26 27 27 28 28 29 29 28 28 29 30 31 31 30 30 30 31 30 30 31 31 32 32 32
17 18 19 19 19 20 20 21 22 22 22 22 22 22 22 23 23 24 25 26 26 26 26 27 27 28 28 28 29 29 30 29 29 28 29 29 29 30 30 30 31 31 32
17 17 18 18 18 19 20 20 21 22 21 21 22 22 22 22 23 23 24 25 25 26 26 26 26 27 27 27 28 28 28 29 29 29 29 29 29 30 30 30 30 31 31
16 17 17 17 18 18 19 19 20 20 21 21 22 21 22 23 23 23 24 24 25 25 25 25 26 26 27 27 29 29 29 29 29 28 29 30 30 30 31 31 30 30 31
16 17 18 18 17 18 18 19 19 20 20 21 20 20 21 22 22 23 23 23 24 24 25 25 26 27 28 29 29 29 29 29 28 28 29 30 31 30 30 30 31 31 31
17 18 18 17 17 17 18 18 19 19 19 19 20 20 21 22 22 22 22 23 24 25 25 26 27 28 29 29 29 29 29 29 29 29 30 31 31 32 32 32 32 32 32
17 18 17 17 18 17 18 18 18 18 19 19 20 20 21 22 22 23 24 26 26 26 26 27 28 29 29 29 29 29 29 29 29 29 29 30 31 31 31 32 32 32 31
17 17 17 18 18 19 19 18 18 18 18 19 20 20 21 22 23 24 25 27 27 28 27 28 29 29 30 29 29 28 29 29 30 29 29 29 28 28 29 30 30 30 31
17 17 17 18 18 18 18 18 18 18 18 19 19 20 21 22 24 25 26 28 28 28 28 29 29 29 29 29 28 28 28 28 29 29 28 28 27 27 27 27 28 28 28
17 17 17 17 17 18 18 18 18 18 18 18 20 21 22 23 24 25 27 28 28 28 28 29 29 29 28 28 27 27 27 27 27 26 26 25 25 26 27 26 26 26 26
16 17 17 17 17 17 17 18 18 18 19 19 21 22 23 24 26 27 28 28 28 28 29 29 29 29 28 27 26 25 25 24 24 24 23 24 24 24 24 25 25 25 26
16 16 16 16 16 17 18 19 19 19 19 20 21 22 24 25 26 27 28 28 29 29 29 29 28 27 27 26 25 24 24 23 22 22 22 23 23 23 23 23 23 23 24
16 16 16 16 17 17 18 19 19 20 20 21 22 23 24 26 26 27 27 28 29 29 29 28 28 27 27 26 25 24 24 23 22 22 22 22 22 22 22 22 22 23 23
15 15 15 16 17 17 18 19 20 20 21 22 23 24 25 26 27 27 28 28 29 29 29 29 28 27 27 26 25 24 24 23 22 21 22 22 22 22 22 21 21 22 21
13 13 14 15 16 17 19 20 20 20 21 22 24 25 26 27 27 27 28 29 30 30 30 30 29 28 27 26 26 26 26 24 23 22 22 22 21 21 21 21 20 20 20
12 13 14 15 16 17 18 19 20 21 22 23 24 26 26 27 27 28 29 29 30 30 30 30 29 28 27 27 27 26 25 24 23 23 22 22 22 21 20 20 20 20 20
12 12 13 15 16 18 18 19 21 21 22 24 25 26 27 28 28 29 29 30 30 31 31 30 29 29 28 27 27 26 26 25 24 24 23 22 21 21 20 19 19 19 18
11 12 13 15 16 17 18 19 21 22 23 25 26 27 28 28 29 29 30 30 31 31 31 30 29 29 28 27 27 27 27 26 25 24 24 23 21 20 19 18 17 17 15
11 11 13 14 16 17 18 20 22 23 24 26 27 29 29 29 29 30 30 30 31 31 31 31 30 29 28 28 28 28 28 27 26 26 25 24 22 20 18 17 16 15 14
10 11 13 14 16 17 18 20 22 24 25 27 28 29 30 29 29 30 31 31 31 32 32 31 31 30 29 28 28 28 29 29 28 27 26 24 22 20 18 16 14 13 12
9 11 13 14 16 17 19 20 22 24 25 27 28 30 30 30 31 31 32 31 32 32 32 31 30 30 30 29 29 29 29 29 29 28 26 24 22 20 18 16 14 13 12
9 11 13 14 16 17 19 20 22 24 25 27 28 29 30 31 31 32 32 32 32 32 32 32 31 30 29 29 29 29 30 30 29 27 26 24 23 21 19 17 15 13 12
9 11 13 14 16 17 19 20 22 24 25 27 28 29 31 32 33 32 32 32 33 33 33 32 32 31 30 30 30 30 30 30 29 28 26 24 23 21 19 17 15 13 13
9 11 12 14 15 17 18 20 22 23 25 27 28 30 31 32 33 34 33 34 33 33 33 33 32 31 31 31 31 31 31 31 30 29 27 25 23 21 19 17 16 14 13
9 10 12 13 15 16 18 19 21 23 25 27 28 30 31 32 33 34 34 34 34 34 33 33 33 32 32 32 32 32 32 31 30 29 27 25 23 21 20 18 17 15 14
9 10 12 13 14 16 17 19 21 23 25 27 28 29 31 33 33 34 34 35 35 34 34 34 33 33 33 33 33 33 33 31 30 29 27 25 23 21 20 19 18 17 16

GEFSGL_500_meanwind_210.txt.gz
Wind_Speed
16 17 18 18 18 19 19 20 20 21 22 22 23 23 23 23 24 24 24 24 25 25 26 27 27 27 28 28 29 30 30 31 31 30 30 31 33 33 34 34 35 37 36
15 16 16 17 17 19 20 20 21 22 22 22 22 22 22 23 23 24 23 24 25 26 26 27 27 27 27 28 29 29 30 31 31 31 31 31 32 32 33 33 34 34 35
15 15 16 17 18 19 20 20 20 21 21 21 21 22 21 22 22 22 23 24 25 25 25 26 27 28 27 28 28 29 30 30 31 31 30 31 31 32 32 33 33 33 35
14 15 15 17 18 19 19 20 20 21 21 20 21 21 21 21 21 22 23 24 24 24 26 27 27 28 28 28 29 29 30 30 30 31 31 31 31 31 32 32 33 33 34
14 14 15 17 18 19 19 20 19 20 20 20 21 21 21 21 21 23 24 24 24 25 26 27 28 28 29 29 29 30 30 30 31 31 31 31 32 32 33 33 33 33 33
13 14 16 18 19 20 19 19 19 19 20 20 20 21 21 21 22 23 23 24 25 25 26 27 28 28 28 28 29 30 30 29 29 30 31 32 33 34 34 33 32 33 33
13 15 16 17 19 19 18 18 19 19 19 20 21 21 21 21 22 23 24 25 25 25 26 27 28 28 28 28 28 29 29 29 29 30 31 32 32 32 33 32 32 33 33
14 15 17 18 19 18 18 18 18 18 19 19 20 21 22 22 23 24 25 25 25 26 26 26 27 27 27 27 27 27 27 27 28 28 29 29 30 30 30 30 31 32 31
14 15 17 17 18 18 18 17 17 17 18 19 20 21 22 23 23 24 25 25 25 25 25 25 26 27 26 26 26 25 26 26 26 26 26 26 26 26 27 27 27 28 29
14 15 16 16 17 18 17 17 18 18 18 20 21 22 23 24 24 24 24 24 25 25 25 25 25 25 25 25 24 24 24 23 23 24 24 23 23 23 23 24 24 24 26
14 15 15 15 16 17 16 17 17 18 19 20 21 22 24 24 24 24 24 24 25 25 25 26 25 25 25 24 24 23 23 22 22 23 23 22 22 22 22 23 22 23 24
13 14 15 15 16 16 16 17 18 19 19 20 20 22 23 24 24 24 24 24 25 25 25 26 25 25 25 25 24 23 23 22 22 22 22 22 22 22 22 23 23 22 23
13 14 14 15 16 16 16 17 18 19 19 20 20 22 23 24 24 25 25 25 26 26 26 26 26 26 25 25 24 23 23 22 22 22 23 22 22 22 21 21 21 20 21
12 13 14 15 15 15 16 17 18 19 20 21 22 23 24 25 25 26 26 26 26 27 26 26 26 25 25 24 24 23 23 23 23 23 23 22 21 21 21 20 19 19 19
11 13 13 14 15 15 16 17 18 19 20 22 23 24 25 26 26 27 27 27 27 27 27 27 26 26 26 25 25 24 24 23 23 24 23 22 21 21 19 18 17 16 16
11 12 12 13 14 14 15 17 18 19 20 22 24 25 26 27 26 27 27 27 27 27 27 26 26 25 25 24 24 24 24 23 23 24 23 21 20 19 17 16 16 16 16
10 11 11 13 13 14 15 17 18 19 21 23 25 26 27 27 27 27 28 28 28 28 27 26 26 25 25 24 24 24 24 24 24 23 22 20 19 18 17 16 16 16 15
9 10 11 12 13 14 16 17 17 19 21 23 25 26 27 28 28 28 28 29 29 29 28 27 26 26 25 26 25 25 25 25 24 24 22 21 19 18 17 15 14 14 14
8 9 10 11 13 14 16 17 18 19 21 23 24 26 27 28 29 29 29 29 29 28 28 27 27 26 26 26 26 25 25 25 25 25 23 21 19 18 17 15 14 14 13
7 8 9 11 13 14 16 17 18 19 21 22 24 25 27 29 30 30 30 30 30 29 27 27 27 26 26 26 25 25 26 25 25 24 23 21 20 19 17 15 14 13 12
7 8 9 10 12 14 15 17 18 20 21 23 24 25 27 29 30 30 29 30 30 29 28 28 27 27 27 26 26 26 25 25 25 24 23 21 20 19 18 16 14 13 12
7 8 9 11 12 13 15 16 18 19 21 23 24 26 27 29 30 30 30 30 31 30 29 29 28 28 27 27 26 26 25 25 25 25 23 22 20 19 17 16 15 13 13
7 8 9 11 12 13 14 16 17 19 21 23 25 26 28 29 31 31 31 32 31 30 29 29 28 28 28 27 27 26 26 25 25 25 24 23 21 19 17 16 15 14 13
7 8 9 10 11 12 14 16 17 19 20 22 24 26 27 29 30 31 31 32 32 31 30 29 29 29 29 29 28 27 27 26 25 25 25 23 22 20 18 16 15 14 14
7 8 9 10 11 12 14 15 16 18 20 22 23 25 27 29 30 31 31 32 32 32 31 31 30 30 30 29 29 28 27 26 25 25 25 24 22 21 19 17 15 15 14
7 8 9 10 11 12 13 15 16 18 19 21 23 25 27 28 29 30 31 32 32 32 31 31 31 31 30 30 29 28 28 27 26 26 25 24 23 21 19 18 17 16 15

GEFSGL_500_meanwind_216.txt.gz
Wind_Speed
16 17 17 17 18 19 20 20 20 20 21 22 23 24 24 24 26 27 28 28 29 30 29 30 30 31 32 32 32 32 32 33 33 33 33 33 33 33 33 33 34 34 34
17 17 18 17 18 18 19 20 21 21 21 21 22 23 24 25 27 27 28 28 29 28 29 29 30 31 31 31 32 32 32 32 33 33 32 33 33 34 34 34 34 34 34
16 17 17 17 18 18 19 19 20 20 21 21 22 24 25 26 26 27 27 28 28 28 29 29 30 30 30 30 30 30 31 32 32 32 32 33 33 33 33 34 34 34 34
15 16 16 17 18 18 18 18 19 20 21 21 22 23 24 25 26 26 26 27 28 28 29 30 30 29 28 29 29 30 31 32 32 33 33 32 32 32 32 32 33 34 35
15 16 16 17 17 17 18 18 19 20 21 22 22 23 24 25 25 26 27 28 28 29 29 29 29 29 29 29 29 29 30 30 30 30 31 30 30 31 31 31 32 33 34
15 15 16 16 17 17 18 18 19 21 21 21 21 23 24 25 26 26 27 28 28 29 29 29 29 29 29 29 30 30 29 29 29 30 30 28 28 29 30 30 31 31 31
14 15 16 17 17 17 18 19 19 20 21 22 22 24 25 26 26 27 27 28 29 29 28 28 28 28 28 29 29 29 29 28 28 29 28 27 27 28 28 29 29 29 30
14 15 16 16 17 18 18 19 20 21 21 22 22 24 25 26 26 27 28 28 29 28 28 28 28 28 27 27 28 28 28 27 27 27 27 27 27 27 27 27 27 28 29
14 14 15 15 16 17 18 19 20 20 21 22 23 24 25 26 26 27 28 28 28 29 29 28 27 26 26 26 26 27 26 25 26 26 27 26 25 26 26 25 25 26 26
13 14 14 15 16 17 18 18 19 20 21 22 22 23 25 26 26 27 28 28 28 28 28 27 26 26 26 26 26 25 24 24 24 24 25 24 24 24 24 24 24 24 24
13 14 14 15 15 17 17 18 19 20 21 21 22 23 25 25 26 27 28 28 28 28 27 26 25 25 25 25 24 23 23 23 23 23 23 22 23 23 23 23 23 23 23
13 13 14 15 16 17 17 18 19 20 21 21 22 24 25 25 26 26 27 27 27 27 26 25 24 24 24 24 24 23 23 23 23 22 22 21 21 22 22 22 22 22 22
13 13 14 14 15 16 18 18 19 20 21 21 22 23 24 26 26 26 27 27 27 27 26 25 24 24 24 24 24 24 23 23 23 22 22 21 21 21 20 20 20 19 19
12 12 13 14 15 16 17 18 19 20 21 22 23 24 25 26 27 27 27 28 28 28 27 26 25 24 25 25 25 24 23 23 23 22 21 20 20 20 19 19 18 18 18
11 12 13 13 14 15 16 17 19 20 21 22 23 24 25 26 27 28 28 29 29 29 28 27 26 25 25 25 24 24 24 24 23 23 22 21 20 19 19 18 18 17 17
10 12 12 12 13 14 16 18 19 20 20 22 23 24 25 26 27 28 29 30 30 29 28 27 26 26 25 25 25 25 25 25 24 23 22 20 19 19 18 17 18 17 16
11 12 12 12 13 14 16 17 18 19 20 22 23 25 26 27 28 29 30 30 30 30 29 28 27 26 26 25 25 24 24 24 24 23 22 21 20 19 17 17 17 17 17
11 12 12 12 13 15 16 17 17 18 20 21 23 24 26 27 29 30 30 31 30 30 30 29 28 28 27 26 26 25 25 25 24 23 23 21 20 19 17 17 17 18 18
10 11 12 12 13 15 15 15 16 18 20 21 23 24 26 27 28 29 30 31 31 31 31 30 29 28 28 27 26 25 25 25 24 23 22 22 21 19 18 17 17 18 17
10 11 12 13 14 15 15 15 16 18 20 21 23 25 26 27 28 29 30 31 31 32 32 31 30 29 28 27 27 26 26 25 25 24 22 21 21 20 18 18 18 18 17
10 11 12 13 14 15 15 16 17 18 20 21 22 24 25 26 28 29 29 30 31 32 32 32 31 30 29 28 27 27 27 26 25 24 23 22 21 20 19 18 18 17 17
10 11 12 13 13 14 15 16 17 18 19 21 22 24 25 27 28 29 29 30 31 31 32 32 31 30 29 28 28 28 27 27 26 25 24 23 21 20 19 18 18 17 17
10 10 12 12 13 14 14 15 17 18 19 21 22 23 24 25 26 28 29 30 31 31 32 32 32 31 31 30 29 29 28 27 26 26 24 23 22 21 19 19 18 17 16
10 11 11 12 12 13 14 15 17 18 19 20 21 22 23 25 26 27 29 30 31 31 31 32 31 31 31 30 30 29 29 28 27 26 25 23 22 21 21 20 18 17 16
10 11 11 12 12 13 14 15 17 18 19 20 21 22 24 25 26 27 29 30 31 31 32 32 32 31 31 31 29 29 29 28 27 27 26 24 23 22 21 20 19 17 16
11 11 12 12 13 14 14 16 17 18 19 20 21 22 23 24 25 27 28 29 30 31 32 32 32 32 31 31 30 29 29 28 28 27 26 25 23 22 21 20 19 18 18

GEFSGL_500_meanwind_222.txt.gz
Wind_Speed
15 16 16 16 16 16 15 15 16 16 16 16 17 17 19 20 21 22 22 23 24 26 27 28 29 30 31 31 33 33 33 33 33 33 34 33 33 34 35 34 34 35 36
14 15 15 15 15 14 14 14 14 15 16 17 18 18 19 20 21 22 23 24 26 27 28 29 29 30 30 31 31 32 32 33 32 32 32 32 32 32 32 33 33 34 35
14 15 15 14 14 14 14 15 16 16 17 18 19 19 20 21 22 23 24 25 27 28 29 29 28 29 30 31 31 31 32 32 32 32 32 31 32 32 33 33 33 33 34
14 14 14 13 13 13 15 16 16 17 17 18 18 19 20 21 23 23 24 26 27 28 28 28 28 29 30 30 31 30 30 31 31 31 31 30 31 32 33 33 33 33 33
14 13 13 13 13 14 15 16 17 17 17 18 19 19 20 22 23 24 24 26 27 28 28 27 28 29 29 30 30 29 29 29 29 30 30 30 30 31 31 32 31 32 32
13 12 12 13 14 14 15 16 16 17 17 17 18 19 20 21 23 24 25 26 27 27 27 28 28 29 29 29 29 28 28 27 28 28 28 28 28 29 29 29 30 30 30
12 12 12 13 14 14 15 16 16 17 17 18 18 19 20 21 23 25 26 26 26 27 27 28 28 29 28 27 27 26 26 26 26 26 26 26 26 25 26 27 27 27 27
11 12 12 13 14 14 15 16 16 17 17 18 19 19 20 22 23 24 26 26 26 27 27 27 27 26 26 26 26 26 26 26 26 26 25 24 24 23 24 23 23 24 24
12 13 13 13 14 15 15 15 16 16 17 18 19 20 22 23 25 25 27 27 26 26 26 26 25 26 25 25 25 25 25 25 25 25 24 24 23 22 21 21 21 22 22
11 12 12 13 14 14 15 15 15 16 17 18 20 22 23 24 25 26 27 26 26 25 26 26 25 25 25 25 25 24 24 24 24 23 23 23 22 21 19 18 18 18 18
11 12 12 13 13 14 15 15 16 16 17 19 20 22 23 24 25 26 25 25 25 26 26 26 26 25 25 24 24 24 24 23 23 23 22 21 21 20 19 18 17 17 17
11 12 12 12 12 14 15 15 16 17 17 19 21 22 23 24 25 25 25 26 26 26 26 26 25 25 24 24 25 25 24 24 23 23 22 21 20 19 18 18 18 17 18
11 11 11 12 12 13 14 15 16 18 19 20 22 22 23 24 25 26 26 27 27 27 26 26 25 25 24 24 24 24 24 23 23 23 22 21 20 19 18 18 18 17 16
12 11 11 12 12 13 13 15 17 18 19 20 22 22 23 23 24 25 26 26 27 27 27 27 25 25 24 24 24 24 23 23 23 22 21 20 20 19 18 17 16 15 15
11 10 11 11 12 12 14 15 17 18 19 20 21 22 23 23 24 25 26 27 27 28 28 27 26 25 24 24 24 24 23 23 22 21 20 20 19 18 18 16 15 15 15
11 11 11 12 12 12 14 15 17 18 19 20 21 22 23 23 24 25 26 27 27 28 29 28 27 26 25 24 24 24 23 23 22 21 20 19 18 18 18 17 16 15 15
10 11 11 11 11 12 13 15 16 17 18 19 20 21 22 23 24 25 26 27 28 29 30 29 28 27 25 24 24 23 23 22 21 21 20 19 19 18 18 17 16 16 15
9 10 11 11 11 12 13 14 15 16 16 17 19 21 22 23 24 25 26 27 28 29 30 30 29 27 26 25 25 24 23 22 21 21 20 19 19 19 18 18 17 16 15
10 11 12 12 12 13 13 14 14 15 16 17 19 20 21 22 23 24 26 27 28 28 29 29 28 27 26 26 25 24 23 23 22 22 21 20 19 18 18 17 16 16 15
11 11 11 12 12 12 12 13 13 14 15 16 18 19 20 22 23 25 26 27 28 28 28 28 28 27 27 26 26 25 24 23 23 22 21 20 19 19 18 17 16 15 15
11 10 10 11 11 11 11 11 12 13 15 16 18 19 20 22 23 25 26 27 28 28 28 28 27 27 27 27 27 26 25 24 23 22 21 20 20 19 18 17 16 15 15
10 10 10 10 10 10 10 10 11 13 15 16 18 19 21 22 23 24 26 27 28 28 28 27 27 27 27 27 27 27 26 25 23 22 21 20 20 19 18 17 16 16 16
10 10 10 10 10 10 10 11 13 14 15 17 17 19 20 22 23 24 26 27 28 29 28 28 28 27 26 27 27 27 27 26 24 23 21 21 20 19 18 18 17 16 15
9 9 10 10 10 10 11 12 13 14 15 16 17 18 19 21 22 24 25 27 28 28 29 28 28 27 26 26 27 27 28 27 25 24 23 22 20 19 19 19 18 17 15
8 9 9 9 10 11 11 12 12 14 14 15 16 18 19 20 21 23 24 25 27 29 29 28 28 28 27 27 27 28 28 27 26 25 24 23 22 21 20 20 19 18 16
9 9 9 9 9 10 11 11 12 13 15 15 16 17 18 18 20 21 22 24 26 27 28 28 28 28 28 27 27 27 28 27 26 25 25 24 23 23 22 21 20 19 18

GEFSGL_500_meanwind_228.txt.gz
Wind_Speed
11 12 13 13 14 14 15 16 16 16 17 17 17 18 19 19 20 20 21 22 23 24 25 26 27 27 28 28 29 30 31 32 32 33 34 35 36 37 37 38 38 38 39
11 11 12 13 13 14 15 16 16 16 17 17 17 18 19 19 20 21 22 23 24 24 25 26 27 27 28 28 29 30 31 32 33 33 33 34 34 35 35 35 35 35 36
11 12 13 14 14 15 16 17 17 17 17 17 17 18 18 20 21 21 22 23 24 24 25 25 26 28 28 28 29 30 31 33 33 33 33 34 34 34 34 34 34 34 34
12 13 14 14 14 15 16 17 17 17 17 18 18 18 19 20 21 21 22 23 24 25 25 26 27 27 28 28 29 31 32 33 33 33 32 33 33 33 33 33 32 33 33
13 14 14 14 14 15 16 16 17 17 18 18 18 18 19 20 21 21 22 24 25 26 26 27 27 28 28 30 31 31 32 32 32 32 32 31 31 31 32 32 33 32 32
14 15 14 14 14 15 16 17 17 17 17 17 17 17 18 19 20 22 23 25 26 26 26 27 27 28 29 30 30 30 31 31 32 32 31 31 30 29 28 29 30 30 30
14 14 14 13 14 15 16 16 16 16 16 16 16 17 18 19 21 23 25 26 26 26 27 27 28 28 29 29 29 29 30 30 30 30 30 29 28 27 26 26 25 25 26
14 13 13 13 13 14 15 15 16 16 16 16 16 18 19 20 22 23 25 26 26 26 26 27 27 27 28 28 28 28 28 27 28 28 28 27 26 25 25 23 22 22 21
13 13 13 13 14 14 14 15 15 15 16 16 17 18 20 21 23 25 26 26 26 27 27 26 26 26 27 27 26 25 25 25 26 26 26 26 25 24 23 22 21 20 20
13 13 13 14 14 14 14 14 14 15 16 16 18 20 21 23 24 26 27 27 27 27 26 26 26 26 26 26 24 24 23 24 25 25 25 25 25 24 23 22 21 21 21
13 13 13 13 13 13 13 14 14 15 16 17 19 20 22 23 25 27 27 27 27 26 26 26 26 26 25 24 24 23 24 24 25 25 25 25 24 23 22 21 21 20 19
13 13 13 13 13 13 13 14 14 15 17 18 19 21 22 24 25 26 27 27 27 26 27 27 26 25 25 24 24 24 25 25 25 25 25 25 24 23 22 21 20 18 17
13 13 13 13 14 14 13 14 15 15 17 19 20 21 23 24 25 26 26 27 26 26 27 26 26 25 25 24 24 24 24 25 25 26 26 25 24 23 23 21 20 17 17
13 13 13 14 14 14 14 14 15 16 18 19 20 21 23 24 25 26 26 26 27 27 27 26 25 25 25 24 24 24 25 25 26 26 26 25 24 23 21 20 19 17 16
13 13 13 14 14 14 14 14 15 16 18 19 20 22 23 24 25 26 26 26 27 27 28 27 27 26 25 25 25 25 25 25 25 26 26 25 24 23 21 20 19 17 16
13 13 14 14 13 13 14 14 15 17 18 19 20 21 22 24 24 25 25 26 27 28 29 28 27 26 25 25 25 25 25 25 26 26 25 25 24 22 21 20 18 17 16
13 14 14 14 14 14 14 15 15 17 18 18 19 20 21 23 23 24 25 26 27 28 28 28 28 27 26 26 25 26 25 25 25 25 24 23 23 22 21 20 20 17 16
14 14 14 15 15 15 15 15 15 16 17 18 18 20 21 22 22 24 26 27 27 28 29 28 28 28 27 26 26 26 25 24 25 25 24 23 22 22 22 21 21 20 17
14 14 15 15 15 15 15 15 15 16 17 17 18 19 21 21 23 24 26 27 28 28 29 29 28 28 28 27 26 25 25 25 25 25 24 24 23 23 23 21 20 19 17
14 15 16 15 15 15 15 15 15 16 17 17 18 19 20 21 23 24 25 27 27 28 29 28 28 28 28 28 26 25 25 25 25 25 25 24 24 24 22 21 19 18 17
15 15 16 15 15 15 15 15 15 16 17 18 18 20 20 20 22 23 24 25 27 27 28 28 28 28 28 27 26 25 25 25 26 26 25 25 24 24 22 21 19 18 17
16 16 16 15 14 14 14 14 15 16 16 17 18 19 19 20 21 22 23 24 25 27 27 28 28 28 27 27 26 25 25 25 26 26 26 26 25 24 22 21 19 18 17
16 15 15 14 13 13 14 14 14 15 16 17 17 18 18 19 20 21 22 23 24 26 26 27 28 28 27 27 26 25 25 25 25 26 26 26 26 24 22 20 19 18 17
15 14 13 13 13 13 13 13 14 15 15 16 16 17 17 19 20 21 21 22 23 25 26 27 28 28 27 27 26 25 25 25 25 26 26 26 26 26 23 21 19 18 18
14 13 12 12 12 13 13 13 13 14 14 15 16 16 16 18 19 20 21 22 23 23 24 26 27 27 27 26 25 25 25 25 25 25 26 26 25 25 24 23 20 19 18
14 13 13 13 12 13 13 13 13 13 14 14 15 15 16 18 18 20 20 21 21 22 23 24 25 26 26 26 25 24 25 25 25 25 25 25 24 23 23 23 22 20 19

GEFSGL_500_meanwind_234.txt.gz
Wind_Speed
16 15 15 16 16 15 14 14 15 16 17 18 18 18 19 20 20 20 22 23 23 24 25 25 25 26 26 27 27 27 28 29 30 30 32 33 34 34 35 35 35 37 38
13 14 15 15 15 14 14 15 16 17 17 17 17 17 18 19 20 20 21 22 23 24 24 23 23 24 25 25 26 26 27 28 29 29 30 31 32 33 33 33 33 34 37
12 13 14 14 12 12 14 15 15 16 16 16 16 17 18 19 20 20 20 22 23 23 22 22 22 22 23 24 25 26 26 27 28 29 30 30 30 31 32 33 33 33 34
12 12 12 11 11 12 14 15 15 15 15 16 17 18 18 19 19 20 21 22 21 20 20 21 21 22 24 25 25 25 26 27 28 29 29 30 30 31 31 32 32 33 34
11 11 11 10 11 13 13 14 14 15 16 16 17 17 17 17 18 20 21 20 20 20 20 21 22 23 24 25 25 25 26 27 27 28 29 30 30 30 30 30 31 31 31
11 11 10 10 12 13 13 14 15 15 16 17 16 16 16 17 18 20 20 20 20 20 21 22 23 24 24 24 25 26 26 26 27 28 28 28 28 29 28 28 28 28 28
11 11 11 11 12 13 14 14 15 15 16 16 16 15 16 17 18 19 20 20 21 22 23 23 24 24 24 24 25 25 26 26 27 27 27 27 27 27 27 27 27 26 26
11 11 11 11 12 13 14 14 14 15 15 15 15 15 16 17 17 19 20 21 21 23 23 24 24 24 24 24 24 24 25 26 26 26 26 27 26 25 25 25 25 24 23
11 11 11 12 12 13 13 13 14 14 14 14 14 16 17 17 18 19 20 22 23 24 24 24 24 24 23 23 24 24 24 25 25 25 25 25 26 25 26 26 24 23 22
11 11 12 12 12 12 12 13 13 13 13 14 14 16 17 18 19 20 21 23 24 24 25 25 24 23 23 23 23 23 23 24 24 24 24 24 25 26 26 25 23 21 19
12 12 13 13 12 12 13 13 13 13 13 14 15 16 18 19 20 21 22 23 24 25 25 25 24 22 22 22 22 22 23 23 23 23 24 25 25 26 25 24 22 20 19
12 12 12 12 12 12 13 12 11 12 13 14 16 17 18 19 20 21 23 23 24 25 25 24 23 22 21 22 23 22 23 23 22 23 25 25 25 26 25 23 22 21 20
12 12 12 13 12 12 12 11 12 12 13 14 16 18 18 19 20 21 23 23 24 24 24 24 23 23 22 22 23 22 22 22 23 24 25 25 24 24 23 22 21 20 19
13 13 13 12 12 12 12 12 12 13 14 15 17 18 19 19 20 22 23 23 24 24 24 25 24 23 22 22 23 22 22 23 23 23 24 24 24 23 23 22 22 21 19
13 13 13 12 12 12 12 12 13 14 14 16 17 18 19 20 21 22 23 23 23 24 24 25 25 24 23 23 23 23 23 23 23 22 23 23 23 23 23 22 21 21 19
13 13 13 13 12 12 13 13 14 14 15 16 18 18 19 20 21 22 23 23 23 23 24 24 24 24 24 24 24 24 24 23 23 22 23 23 23 23 23 22 21 20 19
13 13 13 13 13 13 13 13 14 15 16 16 17 18 19 20 21 22 22 23 23 23 24 24 24 25 24 24 25 24 23 23 23 23 22 23 23 23 22 22 21 20 19
14 13 13 13 14 14 14 14 15 15 15 16 17 18 19 20 21 22 22 22 23 23 23 24 24 24 24 24 24 23 23 23 23 22 22 22 22 22 21 21 21 20 18
14 14 14 14 14 14 14 15 15 15 15 16 17 18 19 20 21 21 21 22 22 22 23 23 24 24 24 24 24 23 22 22 21 22 21 21 21 21 21 21 20 19 18
14 14 15 15 15 14 14 15 15 16 16 17 18 18 19 19 20 20 20 21 21 22 23 23 24 24 24 24 24 24 23 22 22 22 21 21 21 21 20 20 19 18 17
14 15 15 15 16 15 15 15 16 17 17 17 17 18 18 19 19 20 19 20 20 22 23 24 24 24 24 25 25 24 22 21 21 22 21 21 20 20 20 19 18 18 18
15 15 16 16 16 15 16 16 17 17 17 17 17 18 18 18 18 18 18 19 20 21 22 23 24 24 24 24 24 24 22 21 21 21 21 20 19 19 19 18 18 18 17
16 16 16 16 17 17 17 17 17 17 16 16 16 16 17 17 17 17 17 18 19 21 22 23 24 24 24 23 24 24 23 22 21 22 22 21 20 19 19 18 18 18 17
16 16 16 17 17 17 17 17 16 16 15 16 16 15 16 16 16 16 17 18 19 20 21 22 23 23 24 24 24 24 23 23 22 21 21 21 20 20 19 18 18 18 17
16 16 16 17 16 16 16 16 15 15 15 15 15 15 15 15 15 15 16 18 19 20 20 21 22 22 23 23 24 24 23 23 22 21 21 21 21 20 19 18 17 17 16
16 15 15 15 15 15 15 14 14 14 14 14 15 15 15 15 15 16 17 17 18 19 20 20 20 21 22 23 23 23 23 22 21 21 21 21 21 20 19 18 17 17 15

GEFSGL_500_meanwind_240.txt.gz
Wind_Speed
13 14 15 16 17 18 18 17 17 16 15 15 16 16 17 17 18 19 20 21 21 21 21 22 23 24 24 24 24 25 25 26 26 26 26 27 28 29 29 30 31 31 32
12 14 15 16 17 17 16 16 14 14 15 15 14 16 17 18 18 19 20 20 20 20 21 22 23 24 24 25 25 25 25 26 27 27 27 27 28 29 29 30 30 31 31
13 14 15 16 16 15 15 14 14 15 15 14 15 16 17 18 18 19 20 20 20 21 22 22 23 24 24 25 25 26 26 27 28 28 28 28 29 29 29 29 30 30 31
13 13 14 14 14 13 12 13 14 14 14 15 16 17 17 17 18 19 20 20 20 20 22 23 23 24 25 25 26 26 26 27 28 28 28 29 29 29 29 29 30 30 30
13 13 13 13 12 12 13 13 14 14 15 15 16 16 16 17 18 20 21 21 21 22 23 23 24 25 25 26 26 27 27 27 28 29 29 29 29 29 29 29 30 30 30
13 13 13 12 12 13 13 14 14 14 15 15 16 16 17 18 19 21 22 23 23 23 24 24 25 25 26 27 28 27 27 27 28 28 28 28 28 28 29 29 30 30 30
13 13 13 13 13 14 14 14 14 15 15 16 16 17 17 19 20 21 22 23 23 23 24 24 25 26 26 26 26 26 26 27 27 28 27 27 27 27 28 28 29 30 30
14 14 14 14 14 14 14 14 15 15 15 16 17 17 18 20 21 22 22 22 23 23 24 25 25 26 25 25 25 25 26 25 25 26 26 26 27 28 28 28 30 30 29
14 14 14 14 14 14 14 14 15 15 15 16 17 18 19 20 21 22 22 23 23 24 24 25 25 25 25 25 25 25 25 25 24 25 25 26 27 27 28 28 28 28 27
15 15 14 15 15 14 14 15 15 15 16 17 17 18 19 20 21 22 22 23 23 24 25 26 25 25 25 26 25 25 24 24 24 24 25 25 25 26 27 27 27 26 25
16 15 15 15 15 14 14 15 15 16 16 17 18 19 20 21 22 22 23 23 23 24 25 26 26 25 25 25 25 24 24 24 24 24 24 24 24 25 26 25 24 23 22
16 16 15 15 14 14 14 15 16 16 17 18 18 19 20 22 22 22 22 23 23 24 25 25 25 26 25 25 24 24 24 24 24 24 24 24 24 24 25 24 22 22 22
16 16 15 15 15 15 15 15 16 17 17 18 18 19 20 21 21 21 22 23 23 23 25 25 25 25 25 24 23 23 23 23 23 24 23 23 23 24 24 23 22 22 21
16 16 16 16 16 16 16 16 17 17 17 18 18 20 20 21 21 22 22 22 23 23 24 25 24 24 24 23 24 24 25 24 23 23 23 23 23 23 24 24 23 22 22
17 16 16 16 16 16 16 16 17 18 18 18 18 19 20 20 20 21 22 22 23 23 24 24 25 24 23 24 24 24 24 23 24 24 24 24 24 23 23 23 23 22 22
17 17 16 16 15 16 16 17 17 18 18 18 18 19 19 19 20 20 21 22 23 23 24 24 25 24 23 23 23 23 23 24 24 25 25 25 24 24 23 24 23 22 22
16 16 16 16 16 16 17 17 17 17 17 17 18 18 18 19 19 20 20 21 22 23 24 24 25 25 23 23 23 23 24 24 25 26 26 25 24 24 25 24 24 23 22
16 16 16 16 17 17 17 17 16 16 16 17 18 18 19 19 19 19 20 21 22 23 23 24 24 24 23 23 24 24 24 24 25 26 26 26 25 25 25 24 24 23 21
16 16 16 16 17 17 17 17 16 16 17 18 19 19 19 19 19 19 20 22 23 23 23 23 23 24 24 24 24 24 24 25 25 25 26 26 25 25 25 24 23 22 21
16 15 16 17 17 17 17 17 17 17 18 19 19 19 19 19 19 19 20 21 22 22 22 23 23 24 24 25 24 24 25 25 25 25 25 25 25 25 25 24 22 21 20
16 16 16 17 17 18 18 17 18 18 18 19 19 19 18 18 18 19 19 19 20 21 21 22 24 24 25 25 25 25 26 25 25 25 25 25 25 25 24 23 22 21 19
16 16 16 17 18 18 18 18 18 18 18 18 19 18 18 18 18 19 19 19 20 21 22 22 23 24 24 25 25 25 25 25 24 25 25 25 25 24 23 22 21 20 19
18 17 17 18 18 18 18 18 18 18 17 17 17 19 19 18 19 19 20 19 19 19 20 21 22 22 23 24 24 25 25 25 25 25 25 25 24 23 22 21 20 19 19
18 18 18 18 18 18 18 18 17 17 17 18 18 18 19 19 20 20 20 19 18 19 20 21 21 22 23 24 24 24 24 25 25 24 24 23 23 22 22 21 20 20 19
18 19 19 19 18 18 18 17 17 17 17 17 17 17 18 19 19 19 18 18 18 19 19 20 21 22 22 22 22 23 24 24 24 24 23 23 22 22 22 21 20 20 19
19 19 19 19 19 18 17 17 17 17 17 17 17 18 18 17 17 17 17 17 17 17 18 19 20 21 21 22 22 22 22 23 24 24 24 23 23 22 21 21 20 20 19

GEFSGL_500_meanwind_246.txt.gz
Wind_Speed
11 11 12 12 13 13 13 12 12 12 12 12 13 13 13 13 14 15 16 17 18 19 20 21 22 22 23 22 22 22 23 23 22 23 24 25 26 27 28 29 30 30 31
10 10 11 11 12 13 12 12 13 12 12 13 12 12 12 13 15 15 17 17 18 19 19 19 20 21 21 20 21 21 21 22 22 22 23 25 26 27 27 28 29 30 30
10 10 10 10 11 12 11 11 12 12 12 12 12 12 12 13 14 15 17 17 18 18 19 19 20 20 20 20 21 21 21 21 22 22 23 24 25 26 26 27 28 29 30
9 9 9 10 11 12 12 12 11 11 11 11 12 12 13 13 14 15 16 17 17 18 19 20 21 20 21 21 21 21 22 22 23 23 24 25 26 26 27 27 27 27 28
9 9 10 11 12 12 12 11 11 11 11 12 12 13 13 14 15 16 16 17 18 18 19 20 20 21 21 21 21 21 22 23 24 24 24 25 26 26 26 27 26 26 26
10 10 11 12 13 12 11 10 10 11 12 12 12 12 13 15 15 16 18 18 19 19 19 20 21 21 21 21 22 22 23 24 24 24 25 25 25 25 25 25 25 26 26
11 11 12 12 12 11 11 11 11 12 13 13 13 14 15 16 17 17 18 18 19 19 20 21 20 20 21 21 22 23 23 23 23 24 24 24 24 24 25 25 25 25 25
13 13 13 13 12 12 12 13 13 14 14 14 14 15 16 17 18 18 19 19 19 19 20 21 21 21 21 21 22 23 23 23 24 24 24 23 23 23 24 24 24 24 25
14 14 14 14 14 14 14 14 15 15 15 15 16 17 17 17 18 19 19 18 19 20 20 21 21 21 22 22 22 22 22 23 23 23 23 23 23 23 23 24 23 24 24
15 15 15 15 15 15 16 16 16 16 16 17 17 17 18 19 19 18 18 19 19 20 21 21 22 22 23 22 22 22 23 23 23 23 23 22 22 23 24 24 24 24 24
16 16 16 16 17 16 16 16 17 17 17 18 18 18 19 19 19 19 19 19 19 20 20 21 22 22 22 23 22 22 23 23 23 22 21 21 22 22 23 24 23 23 23
16 16 17 17 17 17 17 17 17 17 18 18 18 18 18 18 18 18 18 19 19 20 20 21 21 21 22 23 22 22 23 23 22 21 20 20 21 21 23 24 24 22 21
16 16 16 16 17 17 16 16 17 17 17 17 17 16 16 17 17 18 18 18 19 19 19 20 20 21 22 23 23 23 23 22 20 19 20 21 21 22 23 23 23 21 20
16 16 16 16 16 15 15 16 16 16 16 16 16 16 16 16 17 18 18 18 18 18 18 19 20 22 23 23 24 24 23 21 19 19 20 21 22 23 24 24 22 21 21
17 16 16 15 15 15 15 15 16 16 16 15 16 16 17 17 17 17 17 17 18 18 19 20 21 22 23 23 23 23 23 21 20 20 20 21 22 22 24 24 22 21 21
16 16 15 15 15 15 15 15 16 16 16 15 16 17 17 17 16 17 17 18 18 19 21 21 21 21 22 23 23 23 22 21 21 21 20 21 22 22 22 22 21 21 22
16 16 16 15 15 15 15 16 16 16 16 16 17 17 17 17 17 17 17 18 19 20 20 21 21 22 22 22 22 22 22 21 21 22 22 22 22 23 23 22 21 21 21
16 16 16 16 16 16 16 16 16 16 16 16 17 17 17 17 17 17 18 18 19 19 20 21 21 21 22 22 22 22 22 21 21 22 22 23 23 23 23 22 22 22 22
16 16 16 16 16 16 16 16 16 16 16 16 16 16 16 17 17 18 18 18 18 19 20 20 21 22 22 22 21 21 21 20 21 21 22 22 23 23 23 23 23 23 22
17 16 16 16 16 15 15 15 15 16 16 16 17 17 16 17 17 18 18 17 17 18 19 20 20 20 20 20 20 20 20 20 20 21 21 22 22 23 23 23 23 23 23
17 17 16 16 16 16 16 16 16 16 17 17 17 17 17 17 17 17 17 16 17 18 18 19 19 20 20 20 19 19 19 19 20 20 21 22 22 23 23 23 23 23 23
18 17 16 16 16 15 15 16 16 16 17 17 16 17 17 16 16 17 16 16 16 17 17 18 19 19 18 18 18 18 18 19 20 21 21 22 22 22 22 23 23 23 22
17 17 17 17 16 16 16 16 17 17 17 17 17 17 16 16 16 16 16 16 16 16 17 18 18 17 18 17 17 18 19 19 20 20 21 21 22 22 23 23 23 22 21
18 17 17 17 16 15 16 17 17 17 17 17 17 17 17 16 16 16 16 16 16 16 17 17 17 17 17 16 17 18 19 19 20 20 21 21 22 23 23 22 22 21 20
17 17 17 17 16 15 16 16 17 17 17 17 17 17 17 17 16 16 16 16 16 16 16 17 17 17 17 16 17 18 18 19 20 21 22 22 23 23 23 22 21 20 18
17 16 16 16 16 16 16 16 17 17 17 17 17 17 17 17 16 16 16 16 16 16 16 16 16 16 17 17 17 18 18 19 20 20 21 22 23 23 23 22 20 18 17

GEFSGL_500_meanwind_252.txt.gz
Wind_Speed
13 13 14 14 15 16 15 15 14 14 13 13 14 15 15 16 17 17 17 17 18 18 18 19 20 20 20 21 23 23 23 23 24 23 23 23 24 25 26 27 27 28 28
12 11 12 13 14 15 15 15 14 14 14 14 15 15 16 16 17 17 17 17 17 17 18 19 19 20 20 21 22 23 23 23 22 23 23 24 24 26 27 27 27 27 28
10 10 11 11 12 13 15 15 14 14 15 15 16 16 16 16 17 17 17 17 17 18 19 19 19 20 20 20 21 22 22 22 22 23 24 25 26 26 27 27 27 27 28
11 11 11 11 12 14 14 14 14 14 15 16 16 16 16 17 17 18 17 17 18 19 19 19 19 20 20 21 21 21 21 22 23 24 25 25 26 26 27 27 27 27 28
12 12 13 13 14 14 14 14 15 15 15 16 16 17 17 17 18 17 18 18 18 19 19 20 20 20 21 21 21 22 22 23 24 25 25 25 25 26 25 26 26 26 26
13 13 14 15 16 15 15 15 15 16 17 17 17 16 16 17 18 18 19 19 19 19 19 20 20 21 21 21 22 23 24 24 24 25 25 24 24 25 25 26 26 26 26
15 15 16 15 15 15 15 16 16 16 17 17 16 16 16 17 18 19 20 19 19 19 19 20 20 21 21 22 22 23 23 24 24 23 23 23 23 24 25 25 26 26 26
15 16 15 14 15 16 16 16 16 16 16 16 17 18 18 18 19 20 20 19 20 20 20 20 21 21 22 22 23 23 24 23 23 22 22 23 23 24 24 24 24 25 25
16 16 16 16 16 16 16 16 17 17 17 17 17 17 18 19 20 20 20 20 20 20 20 21 22 22 23 23 23 23 23 23 23 22 22 23 23 23 23 23 23 24 25
16 16 15 15 15 16 17 17 17 16 16 17 17 17 18 18 19 19 19 19 19 20 21 22 22 22 23 22 22 22 23 24 24 23 23 23 23 23 24 24 24 24 25
15 15 15 15 16 16 17 17 17 17 16 17 17 17 17 17 17 18 18 18 19 19 20 21 22 22 22 22 22 23 23 24 24 23 23 23 24 24 24 25 24 25 25
15 16 16 16 16 16 16 17 16 16 15 15 15 16 16 17 17 18 18 18 18 19 20 20 21 21 21 21 22 22 22 22 23 23 23 23 23 23 24 24 25 25 25
16 16 17 17 16 16 17 16 16 16 16 15 15 16 17 17 18 18 18 18 19 19 19 19 20 20 21 21 21 22 22 22 23 23 23 23 23 23 24 24 25 25 26
17 16 17 16 17 17 16 16 16 16 16 16 16 17 17 17 18 18 18 18 19 18 18 19 20 20 21 22 22 22 22 22 22 22 22 22 23 23 23 23 24 25 26
17 17 17 17 17 17 17 17 17 16 17 17 17 18 18 18 18 18 18 18 18 18 18 19 19 20 21 22 22 22 23 23 23 22 22 22 23 23 23 23 24 25 25
17 17 17 17 17 17 16 16 17 17 17 18 18 18 18 18 17 17 17 17 17 17 18 19 19 19 20 21 21 22 22 22 22 21 21 22 22 23 23 24 24 24 25
17 17 17 17 17 16 16 16 17 17 18 18 18 18 18 17 17 17 17 17 17 18 18 19 19 19 20 20 21 21 21 22 21 21 21 21 22 23 23 24 23 24 24
18 18 17 17 17 17 16 17 18 18 17 17 17 17 17 17 16 17 17 17 18 18 18 18 19 19 19 20 21 21 21 22 22 22 21 21 21 22 23 22 22 23 23
19 18 18 18 17 17 17 17 18 18 17 17 17 16 16 16 16 16 17 17 17 17 17 18 18 19 20 20 21 22 22 22 22 22 21 21 21 22 22 21 21 22 23
19 18 18 18 17 17 17 17 17 18 17 17 16 16 16 16 16 17 17 18 17 17 17 17 18 19 19 20 21 21 21 21 22 22 21 21 22 22 21 21 21 21 22
18 18 18 18 18 18 17 17 17 17 17 17 16 16 17 17 17 17 18 18 17 16 17 17 18 19 19 20 21 21 21 21 21 21 20 21 22 22 21 21 21 21 21
17 17 17 18 17 16 16 17 16 16 16 17 17 17 17 17 17 17 17 17 16 17 17 18 19 19 20 21 20 20 20 20 20 19 19 20 21 21 21 21 21 21 20
16 17 17 16 17 16 16 16 17 17 17 18 18 18 18 18 17 17 18 17 17 17 18 19 20 20 20 20 20 20 20 19 19 19 19 20 21 21 21 21 21 21 21
16 16 16 16 17 16 17 17 17 17 18 18 18 17 17 18 17 17 17 17 18 18 19 19 19 19 19 19 19 19 19 19 19 20 19 20 21 21 20 20 21 21 20
16 16 17 17 17 17 17 17 17 17 17 17 18 18 18 18 18 17 17 17 18 19 19 19 19 19 18 18 18 18 18 19 19 19 19 20 20 19 19 20 20 20 20
16 16 17 17 17 17 17 17 17 17 17 17 17 18 18 18 18 17 18 18 18 18 18 18 18 18 17 17 18 18 18 18 18 18 18 19 19 19 18 19 20 20 19